KLM569 HTDA-EHAM

Flight info

Callsign KLM569
Flight time 9h 14m
Altitude 35000
Route TIDUR1D UVUKO DCT EVOGO DCT ENORA DCT ALEMU UT129 GETOL UM308 KONET UG650 RASKA T513 EGMEG G660 JDW L677 CVO L617 MENKU Y661 ANTAR DCT RIGRO DCT ESOPO DCT FSK UN128 RUGAS DCT RAXAD DCT RAMAP DCT SIVLA DCT NIDLO DCT NURMI DCT LAMSI DCT MAPOX DCT NORKU
Aircraft B772/H-SDE2E3FGHIJ3J5P2RWXYZ/LB1D1

Departure

Time 2026-05-07 06:34
Airport Julius Nyerere International Airport (HTDA)

Arrival

Time 2026-05-07 15:49
Airport Amsterdam Airport Schiphol (EHAM)
Time Latitude Longitude Altitude Speed Heading
2026-05-07 06:20 -6.86230 39.21382 181 ft 0 kts 315°
2026-05-07 06:28 -6.86239 39.21391 181 ft 4 kts 315°
2026-05-07 06:28 -6.86259 39.21410 181 ft 4 kts 316°
2026-05-07 06:29 -6.86276 39.21427 182 ft 4 kts 328°
2026-05-07 06:29 -6.86298 39.21429 182 ft 4 kts 27°
2026-05-07 06:29 -6.86317 39.21416 183 ft 1 kts 44°
2026-05-07 06:32 -6.86295 39.21438 182 ft 11 kts 44°
2026-05-07 06:32 -6.86236 39.21496 179 ft 12 kts 47°
2026-05-07 06:32 -6.86239 39.21561 179 ft 9 kts 148°
2026-05-07 06:33 -6.86298 39.21585 179 ft 9 kts 146°
2026-05-07 06:33 -6.86336 39.21637 178 ft 9 kts 128°
2026-05-07 06:33 -6.86391 39.21663 177 ft 9 kts 191°
2026-05-07 06:33 -6.86458 39.21611 179 ft 22 kts 225°
2026-05-07 06:34 -6.86739 39.21332 183 ft 93 kts 224°
2026-05-07 06:34 -6.87368 39.20707 182 ft 158 kts 225°
2026-05-07 06:34 -6.88241 39.19849 547 ft 180 kts 224°
2026-05-07 06:34 -6.89125 39.18946 1325 ft 182 kts 225°
2026-05-07 06:35 -6.90007 39.18039 2035 ft 183 kts 225°
2026-05-07 06:35 -6.90904 39.17123 2609 ft 184 kts 225°
2026-05-07 06:35 -6.91799 39.16190 3221 ft 185 kts 221°
2026-05-07 06:35 -6.92965 39.15653 3523 ft 195 kts 177°
2026-05-07 06:36 -6.94240 39.16174 3699 ft 211 kts 133°
2026-05-07 06:36 -6.95004 39.17486 3847 ft 228 kts 113°
2026-05-07 06:36 -6.95662 39.19025 3995 ft 250 kts 114°
2026-05-07 06:36 -6.96386 39.20668 4454 ft 261 kts 114°
2026-05-07 06:37 -6.97137 39.22359 5035 ft 269 kts 115°
2026-05-07 06:37 -6.97908 39.24079 5698 ft 272 kts 115°
2026-05-07 06:37 -6.98706 39.25818 6411 ft 274 kts 116°
2026-05-07 06:37 -6.99504 39.27573 7211 ft 275 kts 114°
2026-05-07 06:38 -7.00308 39.29342 7800 ft 282 kts 115°
2026-05-07 06:38 -7.00963 39.31191 8291 ft 286 kts 96°
2026-05-07 06:38 -7.00651 39.33166 8891 ft 291 kts 63°
2026-05-07 06:38 -6.99332 39.34704 9500 ft 296 kts 33°
2026-05-07 06:39 -6.97446 39.35549 10112 ft 300 kts 17°
2026-05-07 06:39 -6.95360 39.36022 10385 ft 316 kts 10°
2026-05-07 06:39 -6.93144 39.36355 10502 ft 329 kts
2026-05-07 06:39 -6.90817 39.36679 10652 ft 348 kts
2026-05-07 06:40 -6.88369 39.37051 10927 ft 364 kts 10°
2026-05-07 06:40 -6.85852 39.37480 11536 ft 370 kts
2026-05-07 06:40 -6.83283 39.37825 12217 ft 374 kts
2026-05-07 06:40 -6.80722 39.38139 12917 ft 377 kts
2026-05-07 06:41 -6.78110 39.38466 13604 ft 380 kts
2026-05-07 06:41 -6.75476 39.38811 14268 ft 383 kts
2026-05-07 06:41 -6.72821 39.39173 14914 ft 387 kts
2026-05-07 06:41 -6.70107 39.39552 15551 ft 390 kts
2026-05-07 06:42 -6.67440 39.39929 16156 ft 393 kts
2026-05-07 06:42 -6.64717 39.40319 16746 ft 397 kts
2026-05-07 06:42 -6.61971 39.40714 17321 ft 400 kts
2026-05-07 06:42 -6.59217 39.41125 17794 ft 403 kts
2026-05-07 06:43 -6.56423 39.41527 18274 ft 407 kts
2026-05-07 06:43 -6.53609 39.41929 18808 ft 409 kts
2026-05-07 06:43 -6.50786 39.42332 19319 ft 412 kts
2026-05-07 06:43 -6.47937 39.42742 19791 ft 415 kts
2026-05-07 06:44 -6.45066 39.43155 20235 ft 418 kts
2026-05-07 06:44 -6.42167 39.43572 20693 ft 421 kts
2026-05-07 06:44 -6.39261 39.43993 21143 ft 423 kts
2026-05-07 06:44 -6.36339 39.44414 21569 ft 425 kts
2026-05-07 06:45 -6.33402 39.44835 21955 ft 428 kts
2026-05-07 06:45 -6.30442 39.45261 22326 ft 431 kts
2026-05-07 06:45 -6.27461 39.45691 22709 ft 434 kts
2026-05-07 06:45 -6.24509 39.46117 23076 ft 436 kts
2026-05-07 06:46 -6.21459 39.46556 23450 ft 438 kts
2026-05-07 06:46 -6.18430 39.46991 23786 ft 441 kts
2026-05-07 06:46 -6.15426 39.47425 24130 ft 443 kts
2026-05-07 06:46 -6.12361 39.47868 24463 ft 445 kts
2026-05-07 06:47 -6.09288 39.48312 24785 ft 448 kts
2026-05-07 06:47 -6.06198 39.48755 25090 ft 450 kts
2026-05-07 06:47 -6.03094 39.49200 25410 ft 452 kts
2026-05-07 06:47 -5.99957 39.49506 25719 ft 455 kts
2026-05-07 06:48 -5.96790 39.49536 26028 ft 456 kts
2026-05-07 06:48 -5.93604 39.49530 26339 ft 459 kts
2026-05-07 06:48 -5.90407 39.49522 26636 ft 460 kts
2026-05-07 06:48 -5.87198 39.49519 26947 ft 462 kts
2026-05-07 06:49 -5.83980 39.49526 27266 ft 464 kts
2026-05-07 06:49 -5.80742 39.49537 27571 ft 465 kts
2026-05-07 06:49 -5.77491 39.49553 27870 ft 468 kts
2026-05-07 06:49 -5.74229 39.49570 28167 ft 470 kts
2026-05-07 06:50 -5.70951 39.49586 28448 ft 472 kts
2026-05-07 06:50 -5.67665 39.49603 28729 ft 474 kts
2026-05-07 06:50 -5.64358 39.49621 29009 ft 476 kts
2026-05-07 06:50 -5.61042 39.49638 29283 ft 478 kts
2026-05-07 06:51 -5.57710 39.49655 29554 ft 480 kts
2026-05-07 06:51 -5.54366 39.49672 29818 ft 482 kts
2026-05-07 06:51 -5.51011 39.49690 30079 ft 484 kts
2026-05-07 06:51 -5.47639 39.49705 30343 ft 485 kts
2026-05-07 06:52 -5.44251 39.49723 30588 ft 487 kts
2026-05-07 06:52 -5.40862 39.49741 30830 ft 488 kts
2026-05-07 06:52 -5.37452 39.49758 31059 ft 490 kts
2026-05-07 06:52 -5.34030 39.49776 31293 ft 492 kts
2026-05-07 06:53 -5.30607 39.49793 31530 ft 493 kts
2026-05-07 06:53 -5.27171 39.49812 31747 ft 494 kts
2026-05-07 06:53 -5.23726 39.49829 31947 ft 496 kts
2026-05-07 06:53 -5.20270 39.49845 32153 ft 497 kts
2026-05-07 06:54 -5.16809 39.49862 32368 ft 498 kts
2026-05-07 06:54 -5.13347 39.49880 32616 ft 497 kts
2026-05-07 06:54 -5.09887 39.49897 32907 ft 496 kts
2026-05-07 06:54 -5.06487 39.49915 33206 ft 495 kts
2026-05-07 06:55 -5.03050 39.49933 33502 ft 494 kts
2026-05-07 06:55 -4.99615 39.49950 33770 ft 493 kts
2026-05-07 06:55 -4.96186 39.49969 34030 ft 492 kts
2026-05-07 06:55 -4.92762 39.49986 34290 ft 492 kts
2026-05-07 06:56 -4.89343 39.50001 34559 ft 491 kts
2026-05-07 06:56 -4.85932 39.50017 34814 ft 490 kts
2026-05-07 06:56 -4.79072 39.50055 34969 ft 495 kts
2026-05-07 06:57 -4.72196 39.50090 34980 ft 493 kts
2026-05-07 06:57 -4.65400 39.50512 34986 ft 488 kts
2026-05-07 06:58 -4.58630 39.51249 35079 ft 491 kts
2026-05-07 06:58 -4.55234 39.51620 35354 ft 490 kts
2026-05-07 06:58 -4.51851 39.51983 35674 ft 488 kts
2026-05-07 06:59 -4.48478 39.52339 35894 ft 488 kts
2026-05-07 06:59 -4.45095 39.52691 35934 ft 490 kts
2026-05-07 06:59 -4.38311 39.53390 35963 ft 489 kts
2026-05-07 07:00 -4.31568 39.54081 35965 ft 485 kts
2026-05-07 07:00 -4.24875 39.54770 35969 ft 482 kts
2026-05-07 07:01 -4.18206 39.55457 35973 ft 481 kts
2026-05-07 07:01 -4.11541 39.56144 35974 ft 482 kts
2026-05-07 07:02 -4.04902 39.56827 35967 ft 483 kts
2026-05-07 07:02 -3.98159 39.57520 35966 ft 485 kts
2026-05-07 07:03 -3.91475 39.58208 35966 ft 487 kts
2026-05-07 07:03 -3.84730 39.58902 35966 ft 488 kts
2026-05-07 07:04 -3.77971 39.59599 35975 ft 489 kts
2026-05-07 07:04 -3.71201 39.60290 35974 ft 489 kts
2026-05-07 07:05 -3.64430 39.60981 35977 ft 489 kts
2026-05-07 07:05 -3.57651 39.61690 35962 ft 490 kts
2026-05-07 07:06 -3.50877 39.62389 35970 ft 489 kts
2026-05-07 07:06 -3.44107 39.63082 35971 ft 489 kts
2026-05-07 07:07 -3.37352 39.63776 35970 ft 488 kts
2026-05-07 07:07 -3.30600 39.64469 35962 ft 488 kts
2026-05-07 07:08 -3.23854 39.65161 35962 ft 487 kts
2026-05-07 07:08 -3.17114 39.65851 35962 ft 487 kts
2026-05-07 07:09 -3.10380 39.66542 35962 ft 486 kts
2026-05-07 07:09 -3.03654 39.67236 35965 ft 486 kts
2026-05-07 07:10 -2.96923 39.67929 35962 ft 486 kts
2026-05-07 07:10 -2.90182 39.68622 35965 ft 487 kts
2026-05-07 07:11 -2.83438 39.69313 35964 ft 487 kts
2026-05-07 07:11 -2.76684 39.70007 35963 ft 488 kts
2026-05-07 07:12 -2.71070 39.70583 35964 ft 488 kts
2026-05-07 07:12 -2.64309 39.71278 35964 ft 488 kts
2026-05-07 07:13 -2.57551 39.71968 35962 ft 488 kts
2026-05-07 07:13 -2.50791 39.72653 35953 ft 486 kts
2026-05-07 07:14 -2.44059 39.73288 35959 ft 485 kts
2026-05-07 07:14 -2.37341 39.74023 35959 ft 486 kts
2026-05-07 07:15 -2.30646 39.74732 35958 ft 488 kts
2026-05-07 07:15 -2.23889 39.75426 35955 ft 489 kts
2026-05-07 07:16 -2.17114 39.76120 35961 ft 489 kts
2026-05-07 07:16 -2.10329 39.76816 35963 ft 490 kts
2026-05-07 07:17 -2.03545 39.77511 35951 ft 490 kts
2026-05-07 07:17 -1.96763 39.78206 35943 ft 490 kts
2026-05-07 07:18 -1.89985 39.78902 35945 ft 489 kts
2026-05-07 07:18 -1.83215 39.79596 35942 ft 489 kts
2026-05-07 07:19 -1.76453 39.80279 35945 ft 488 kts
2026-05-07 07:19 -1.69675 39.80815 35945 ft 488 kts
2026-05-07 07:20 -1.62948 39.81298 35945 ft 488 kts
2026-05-07 07:20 -1.56138 39.81806 35944 ft 488 kts
2026-05-07 07:21 -1.49418 39.82320 35945 ft 487 kts
2026-05-07 07:21 -1.42654 39.82844 35945 ft 487 kts
2026-05-07 07:22 -1.35894 39.83364 35944 ft 487 kts
2026-05-07 07:22 -1.29137 39.83882 35944 ft 487 kts
2026-05-07 07:23 -1.22383 39.84402 35945 ft 487 kts
2026-05-07 07:23 -1.15626 39.84923 35944 ft 487 kts
2026-05-07 07:24 -1.08869 39.85442 35946 ft 488 kts
2026-05-07 07:24 -1.02100 39.85964 35949 ft 488 kts
2026-05-07 07:25 -0.91949 39.86744 35947 ft 488 kts
2026-05-07 07:26 -0.85180 39.87264 35944 ft 488 kts
2026-05-07 07:26 -0.78411 39.87785 35946 ft 488 kts
2026-05-07 07:27 -0.71644 39.88305 35943 ft 488 kts
2026-05-07 07:27 -0.64882 39.88826 35944 ft 487 kts
2026-05-07 07:28 -0.58127 39.89346 35944 ft 487 kts
2026-05-07 07:28 -0.51378 39.89865 35944 ft 486 kts
2026-05-07 07:29 -0.44676 39.90381 35945 ft 486 kts
2026-05-07 07:29 -0.37939 39.90899 35944 ft 485 kts
2026-05-07 07:30 -0.31199 39.91417 35945 ft 486 kts
2026-05-07 07:30 -0.24466 39.91935 35945 ft 485 kts
2026-05-07 07:31 -0.17728 39.92454 35945 ft 485 kts
2026-05-07 07:31 -0.10997 39.92970 35944 ft 485 kts
2026-05-07 07:32 -0.04260 39.93487 35946 ft 486 kts
2026-05-07 07:32 0.02482 39.94006 35944 ft 486 kts
2026-05-07 07:33 0.09225 39.94525 35944 ft 486 kts
2026-05-07 07:33 0.15968 39.95044 35945 ft 486 kts
2026-05-07 07:34 0.22716 39.95562 35944 ft 486 kts
2026-05-07 07:34 0.29463 39.96082 35945 ft 486 kts
2026-05-07 07:35 0.36213 39.96601 35944 ft 486 kts
2026-05-07 07:35 0.42963 39.97120 35944 ft 486 kts
2026-05-07 07:36 0.49708 39.97639 35952 ft 486 kts
2026-05-07 07:36 0.56446 39.98157 35952 ft 486 kts
2026-05-07 07:37 0.63184 39.98677 35944 ft 486 kts
2026-05-07 07:37 0.69929 39.99194 35937 ft 486 kts
2026-05-07 07:38 0.76677 39.99712 35934 ft 486 kts
2026-05-07 07:38 0.83413 40.00231 35936 ft 486 kts
2026-05-07 07:39 0.90153 40.00750 35935 ft 486 kts
2026-05-07 07:39 0.96888 40.01191 35934 ft 485 kts
2026-05-07 07:40 1.03608 40.00674 35937 ft 484 kts 353°
2026-05-07 07:40 1.10256 39.99856 35935 ft 484 kts 353°
2026-05-07 07:41 1.16947 39.99054 35936 ft 485 kts 353°
2026-05-07 07:41 1.23649 39.98275 35937 ft 485 kts 353°
2026-05-07 07:42 1.30360 39.97506 35936 ft 486 kts 353°
2026-05-07 07:42 1.37076 39.96739 35934 ft 486 kts 353°
2026-05-07 07:43 1.43785 39.95968 35935 ft 485 kts 353°
2026-05-07 07:43 1.50487 39.95201 35934 ft 485 kts 353°
2026-05-07 07:44 1.57189 39.94436 35937 ft 484 kts 353°
2026-05-07 07:44 1.63880 39.93669 35940 ft 484 kts 353°
2026-05-07 07:45 1.70568 39.92901 35936 ft 483 kts 353°
2026-05-07 07:45 1.77210 39.92138 35936 ft 484 kts 353°
2026-05-07 07:46 1.83941 39.91366 35934 ft 483 kts 353°
2026-05-07 07:46 1.90577 39.90604 35935 ft 483 kts 353°
2026-05-07 07:47 1.97265 39.89835 35936 ft 483 kts 353°
2026-05-07 07:47 2.03950 39.89068 35937 ft 484 kts 353°
2026-05-07 07:48 2.10684 39.88298 35934 ft 484 kts 353°
2026-05-07 07:48 2.17323 39.87537 35936 ft 484 kts 353°
2026-05-07 07:49 2.24019 39.86766 35935 ft 484 kts 353°
2026-05-07 07:49 2.30718 39.85998 35936 ft 484 kts 353°
2026-05-07 07:50 2.37409 39.85229 35934 ft 484 kts 353°
2026-05-07 07:50 2.44104 39.84460 35937 ft 484 kts 353°
2026-05-07 07:51 2.50799 39.83691 35935 ft 484 kts 353°
2026-05-07 07:51 2.57496 39.82920 35936 ft 485 kts 353°
2026-05-07 07:52 2.64195 39.82151 35935 ft 485 kts 353°
2026-05-07 07:52 2.70895 39.81383 35936 ft 485 kts 353°
2026-05-07 07:53 2.77593 39.80615 35935 ft 485 kts 353°
2026-05-07 07:53 2.84298 39.79844 35936 ft 485 kts 353°
2026-05-07 07:54 2.91001 39.79075 35935 ft 485 kts 353°
2026-05-07 07:54 2.97709 39.78303 35937 ft 485 kts 353°
2026-05-07 07:55 3.04422 39.77532 35933 ft 486 kts 353°
2026-05-07 07:55 3.11141 39.76762 35937 ft 486 kts 353°
2026-05-07 07:56 3.17866 39.75987 35941 ft 486 kts 353°
2026-05-07 07:56 3.24545 39.75217 35962 ft 486 kts 353°
2026-05-07 07:57 3.31266 39.74445 35964 ft 486 kts 353°
2026-05-07 07:57 3.37993 39.73673 35964 ft 486 kts 353°
2026-05-07 07:58 3.44715 39.72900 35970 ft 486 kts 353°
2026-05-07 07:58 3.51437 39.72124 35973 ft 487 kts 353°
2026-05-07 07:59 3.58154 39.71352 35972 ft 487 kts 353°
2026-05-07 07:59 3.63791 39.70705 35972 ft 486 kts 353°
2026-05-07 08:00 3.70515 39.69931 35980 ft 486 kts 353°
2026-05-07 08:00 3.77235 39.69159 35983 ft 486 kts 353°
2026-05-07 08:01 3.83962 39.68382 35982 ft 486 kts 353°
2026-05-07 08:01 3.90635 39.67613 35989 ft 486 kts 353°
2026-05-07 08:02 3.97358 39.66839 35989 ft 486 kts 353°
2026-05-07 08:02 4.04068 39.65992 35995 ft 486 kts 351°
2026-05-07 08:03 4.10737 39.64850 36005 ft 486 kts 349°
2026-05-07 08:03 4.17392 39.63665 36001 ft 486 kts 350°
2026-05-07 08:04 4.24053 39.62519 36002 ft 486 kts 350°
2026-05-07 08:04 4.30723 39.61400 36009 ft 486 kts 350°
2026-05-07 08:05 4.37397 39.60276 36010 ft 486 kts 350°
2026-05-07 08:05 4.44065 39.59113 36019 ft 487 kts 350°
2026-05-07 08:06 4.50736 39.57941 36019 ft 487 kts 350°
2026-05-07 08:06 4.57416 39.56766 36019 ft 487 kts 350°
2026-05-07 08:07 4.64095 39.55600 36022 ft 487 kts 350°
2026-05-07 08:07 4.70777 39.54441 36028 ft 487 kts 350°
2026-05-07 08:08 4.77461 39.53273 36028 ft 487 kts 350°
2026-05-07 08:08 4.84136 39.52105 36037 ft 487 kts 350°
2026-05-07 08:09 4.90814 39.50940 36043 ft 487 kts 350°
2026-05-07 08:09 4.97443 39.49782 36040 ft 487 kts 350°
2026-05-07 08:10 5.04114 39.48614 36044 ft 487 kts 350°
2026-05-07 08:10 5.10791 39.47448 36054 ft 487 kts 350°
2026-05-07 08:11 5.17467 39.46281 36053 ft 487 kts 350°
2026-05-07 08:11 5.24147 39.45114 36063 ft 487 kts 350°
2026-05-07 08:12 5.30821 39.43948 36067 ft 487 kts 350°
2026-05-07 08:12 5.37494 39.42778 36076 ft 487 kts 350°
2026-05-07 08:13 5.44175 39.41612 36084 ft 487 kts 350°
2026-05-07 08:13 5.50854 39.40442 36085 ft 487 kts 350°
2026-05-07 08:14 5.57535 39.39271 36095 ft 488 kts 350°
2026-05-07 08:14 5.64222 39.38101 36100 ft 487 kts 350°
2026-05-07 08:15 5.70906 39.36931 36102 ft 487 kts 350°
2026-05-07 08:15 5.77579 39.35759 36110 ft 487 kts 350°
2026-05-07 08:16 5.84261 39.34590 36117 ft 487 kts 350°
2026-05-07 08:16 5.90939 39.33420 36125 ft 487 kts 350°
2026-05-07 08:17 5.97620 39.32250 36131 ft 487 kts 350°
2026-05-07 08:17 6.04256 39.31087 36143 ft 487 kts 350°
2026-05-07 08:18 6.10987 39.29904 36137 ft 488 kts 350°
2026-05-07 08:18 6.17631 39.28742 36151 ft 488 kts 350°
2026-05-07 08:19 6.24319 39.27568 36155 ft 488 kts 350°
2026-05-07 08:19 6.30859 39.26417 36150 ft 483 kts 350°
2026-05-07 08:20 6.37389 39.25271 36161 ft 470 kts 350°
2026-05-07 08:20 6.43768 39.24152 36161 ft 460 kts 349°
2026-05-07 08:21 6.50013 39.23055 36170 ft 451 kts 349°
2026-05-07 08:21 6.56143 39.21979 36178 ft 443 kts 349°
2026-05-07 08:22 6.62165 39.20920 36185 ft 436 kts 349°
2026-05-07 08:22 6.68137 39.19868 36216 ft 440 kts 349°
2026-05-07 08:23 6.74254 39.18794 36230 ft 453 kts 350°
2026-05-07 08:23 6.80544 39.17685 36230 ft 465 kts 349°
2026-05-07 08:24 6.86948 39.16559 36235 ft 476 kts 350°
2026-05-07 08:24 6.93543 39.15400 36239 ft 486 kts 349°
2026-05-07 08:25 7.00249 39.14219 36237 ft 491 kts 349°
2026-05-07 08:25 7.06995 39.13032 36241 ft 492 kts 349°
2026-05-07 08:26 7.17118 39.11250 36244 ft 491 kts 349°
2026-05-07 08:26 7.23844 39.10064 36249 ft 490 kts 349°
2026-05-07 08:27 7.30548 39.08885 36256 ft 488 kts 349°
2026-05-07 08:27 7.37229 39.07707 36262 ft 486 kts 349°
2026-05-07 08:28 7.43892 39.06530 36269 ft 485 kts 349°
2026-05-07 08:28 7.50537 39.05357 36276 ft 485 kts 349°
2026-05-07 08:29 7.57178 39.04186 36284 ft 484 kts 349°
2026-05-07 08:29 7.63815 39.03014 36288 ft 485 kts 349°
2026-05-07 08:30 7.70463 39.01840 36299 ft 485 kts 349°
2026-05-07 08:30 7.77122 39.00663 36304 ft 486 kts 349°
2026-05-07 08:31 7.83791 38.99487 36303 ft 487 kts 349°
2026-05-07 08:31 7.90465 38.98308 36323 ft 487 kts 349°
2026-05-07 08:32 7.97149 38.97123 36316 ft 488 kts 349°
2026-05-07 08:32 8.03833 38.95941 36312 ft 488 kts 349°
2026-05-07 08:33 8.10478 38.94766 36331 ft 488 kts 349°
2026-05-07 08:33 8.17016 38.93607 36306 ft 480 kts 349°
2026-05-07 08:34 8.20259 38.93034 36316 ft 466 kts 349°
2026-05-07 08:34 8.23421 38.92476 36316 ft 457 kts 349°
2026-05-07 08:34 8.29556 38.91389 36308 ft 439 kts 349°
2026-05-07 08:35 8.35471 38.90341 36314 ft 424 kts 349°
2026-05-07 08:35 8.41189 38.89328 36327 ft 410 kts 349°
2026-05-07 08:36 8.46727 38.88345 36317 ft 397 kts 349°
2026-05-07 08:36 8.52091 38.87394 36293 ft 386 kts 349°
2026-05-07 08:37 8.54722 38.86928 36160 ft 383 kts 349°
2026-05-07 08:37 8.57348 38.86462 35949 ft 383 kts 349°
2026-05-07 08:37 8.59978 38.85996 35737 ft 384 kts 349°
2026-05-07 08:37 8.62604 38.85530 35565 ft 383 kts 349°
2026-05-07 08:38 8.65223 38.85065 35438 ft 381 kts 349°
2026-05-07 08:38 8.67822 38.84603 35320 ft 378 kts 349°
2026-05-07 08:38 8.70410 38.84144 35170 ft 377 kts 349°
2026-05-07 08:38 8.72993 38.83686 34991 ft 377 kts 349°
2026-05-07 08:39 8.75573 38.83227 34816 ft 376 kts 349°
2026-05-07 08:39 8.78150 38.82769 34677 ft 375 kts 349°
2026-05-07 08:39 8.80715 38.82313 34555 ft 373 kts 349°
2026-05-07 08:39 8.83268 38.81857 34422 ft 372 kts 349°
2026-05-07 08:40 8.85812 38.81407 34276 ft 371 kts 349°
2026-05-07 08:40 8.88351 38.80958 34123 ft 370 kts 349°
2026-05-07 08:40 8.90889 38.80508 33978 ft 370 kts 349°
2026-05-07 08:40 8.93419 38.80058 33859 ft 368 kts 349°
2026-05-07 08:41 8.95936 38.79610 33744 ft 367 kts 349°
2026-05-07 08:41 8.98444 38.79164 33640 ft 365 kts 349°
2026-05-07 08:41 9.00942 38.78720 33501 ft 364 kts 349°
2026-05-07 08:41 9.03437 38.78276 33348 ft 364 kts 349°
2026-05-07 08:42 9.05929 38.77834 33215 ft 364 kts 349°
2026-05-07 08:42 9.08418 38.77390 33098 ft 362 kts 349°
2026-05-07 08:42 9.10912 38.77044 32963 ft 362 kts 356°
2026-05-07 08:42 9.13428 38.77014 32780 ft 362 kts
2026-05-07 08:43 9.15945 38.77084 32636 ft 362 kts
2026-05-07 08:43 9.18454 38.77167 32569 ft 359 kts
2026-05-07 08:43 9.23364 38.77327 32541 ft 350 kts
2026-05-07 08:44 9.25823 38.77403 32171 ft 358 kts
2026-05-07 08:44 9.27479 38.77452 31951 ft 361 kts
2026-05-07 08:44 9.33267 38.77616 31931 ft 350 kts
2026-05-07 08:45 9.37337 38.77731 31707 ft 351 kts
2026-05-07 08:45 9.39788 38.77799 31485 ft 353 kts
2026-05-07 08:45 9.42240 38.77866 31391 ft 351 kts
2026-05-07 08:46 9.47044 38.77998 31335 ft 345 kts
2026-05-07 08:46 9.49449 38.78064 31173 ft 347 kts
2026-05-07 08:46 9.51862 38.78129 31003 ft 347 kts
2026-05-07 08:47 9.56671 38.78260 30864 ft 343 kts
2026-05-07 08:47 9.61399 38.78391 30815 ft 337 kts
2026-05-07 08:48 9.63758 38.78455 30539 ft 343 kts
2026-05-07 08:48 9.66162 38.78521 30269 ft 347 kts
2026-05-07 08:48 9.70937 38.78650 30297 ft 338 kts
2026-05-07 08:49 9.75626 38.78780 30047 ft 339 kts
2026-05-07 08:49 9.77987 38.78846 29914 ft 339 kts
2026-05-07 08:49 9.80325 38.78910 29951 ft 333 kts
2026-05-07 08:50 9.82644 38.78974 29849 ft 334 kts
2026-05-07 08:50 9.84979 38.79037 29635 ft 337 kts
2026-05-07 08:50 9.87328 38.79102 29512 ft 337 kts
2026-05-07 08:50 9.89659 38.79166 29500 ft 334 kts
2026-05-07 08:51 9.94268 38.79292 29374 ft 331 kts
2026-05-07 08:51 9.96575 38.79355 29238 ft 332 kts
2026-05-07 08:51 9.98888 38.79419 29143 ft 332 kts
2026-05-07 08:52 10.03476 38.79543 29035 ft 328 kts
2026-05-07 08:52 10.05759 38.79608 28928 ft 328 kts
2026-05-07 08:52 10.08028 38.79669 28936 ft 323 kts
2026-05-07 08:53 10.10275 38.79731 28816 ft 325 kts
2026-05-07 08:53 10.12561 38.79795 28515 ft 332 kts
2026-05-07 08:53 10.17150 38.79920 28509 ft 325 kts
2026-05-07 08:54 10.21677 38.80046 28350 ft 333 kts
2026-05-07 08:54 10.26290 38.80170 28518 ft 330 kts
2026-05-07 08:55 10.28576 38.80233 28650 ft 328 kts
2026-05-07 08:55 10.30871 38.80296 28626 ft 332 kts
2026-05-07 08:55 10.35488 38.80423 27402 ft 330 kts
2026-05-07 08:56 10.37786 38.80487 27514 ft 329 kts
2026-05-07 08:56 10.40077 38.80550 27600 ft 330 kts
2026-05-07 08:56 10.42381 38.80614 27640 ft 332 kts
2026-05-07 08:56 10.44731 38.80680 27351 ft 344 kts
2026-05-07 08:57 10.47155 38.80747 27132 ft 353 kts
2026-05-07 08:57 10.49653 38.80816 27162 ft 365 kts
2026-05-07 08:57 10.52229 38.80888 27274 ft 376 kts
2026-05-07 08:57 10.54886 38.80962 28674 ft 388 kts
2026-05-07 08:58 10.57648 38.81040 28502 ft 404 kts
2026-05-07 08:58 10.60494 38.81115 28437 ft 415 kts
2026-05-07 08:58 10.63423 38.81196 28400 ft 427 kts
2026-05-07 08:58 10.66438 38.81279 28497 ft 438 kts
2026-05-07 08:59 10.69521 38.81363 28588 ft 449 kts
2026-05-07 08:59 10.72679 38.81450 28682 ft 459 kts
2026-05-07 08:59 10.75900 38.81540 28824 ft 466 kts
2026-05-07 08:59 10.79168 38.81630 28910 ft 475 kts
2026-05-07 09:00 10.85896 38.81813 29040 ft 491 kts
2026-05-07 09:00 10.92815 38.82001 29167 ft 503 kts
2026-05-07 09:01 10.96323 38.82097 29316 ft 505 kts
2026-05-07 09:01 10.99842 38.82194 29568 ft 506 kts
2026-05-07 09:01 11.03353 38.82290 29887 ft 504 kts
2026-05-07 09:01 11.06855 38.82386 30233 ft 503 kts
2026-05-07 09:02 11.10347 38.82484 30563 ft 501 kts
2026-05-07 09:02 11.13835 38.82579 30857 ft 501 kts
2026-05-07 09:02 11.17318 38.82673 31173 ft 501 kts
2026-05-07 09:02 11.20798 38.82768 31489 ft 500 kts
2026-05-07 09:03 11.24275 38.82864 31826 ft 499 kts
2026-05-07 09:03 11.27744 38.82960 32171 ft 499 kts
2026-05-07 09:03 11.31164 38.83054 32505 ft 498 kts
2026-05-07 09:03 11.34628 38.83148 32846 ft 497 kts
2026-05-07 09:04 11.38084 38.83243 33172 ft 497 kts
2026-05-07 09:04 11.41537 38.83338 33497 ft 496 kts
2026-05-07 09:04 11.44986 38.83433 33836 ft 495 kts
2026-05-07 09:04 11.48429 38.83526 34162 ft 494 kts
2026-05-07 09:05 11.51866 38.83622 34474 ft 494 kts
2026-05-07 09:05 11.55299 38.83717 34783 ft 493 kts
2026-05-07 09:05 11.58728 38.83814 35108 ft 492 kts
2026-05-07 09:05 11.62151 38.83907 35434 ft 491 kts
2026-05-07 09:06 11.65568 38.84001 35751 ft 491 kts
2026-05-07 09:06 11.68979 38.84097 36050 ft 490 kts
2026-05-07 09:06 11.72391 38.84191 36164 ft 493 kts
2026-05-07 09:06 11.75824 38.84286 36222 ft 494 kts
2026-05-07 09:07 11.82649 38.84478 36219 ft 491 kts
2026-05-07 09:07 11.89454 38.84666 36220 ft 488 kts
2026-05-07 09:08 11.96242 38.84853 36223 ft 487 kts
2026-05-07 09:08 12.03013 38.85040 36214 ft 487 kts
2026-05-07 09:09 12.09794 38.85232 36207 ft 488 kts
2026-05-07 09:09 12.16588 38.85418 36198 ft 489 kts
2026-05-07 09:10 12.23400 38.85608 36185 ft 490 kts
2026-05-07 09:10 12.30226 38.85799 36189 ft 491 kts
2026-05-07 09:11 12.37070 38.85986 36177 ft 492 kts
2026-05-07 09:11 12.43919 38.86168 36182 ft 493 kts
2026-05-07 09:12 12.50774 38.86356 36174 ft 492 kts
2026-05-07 09:12 12.57621 38.86542 36166 ft 492 kts
2026-05-07 09:13 12.64461 38.86728 36162 ft 491 kts
2026-05-07 09:13 12.71295 38.86914 36151 ft 491 kts
2026-05-07 09:14 12.78125 38.87100 36146 ft 491 kts
2026-05-07 09:14 12.84957 38.87286 36112 ft 491 kts
2026-05-07 09:15 12.91783 38.87471 36106 ft 490 kts
2026-05-07 09:15 12.98602 38.87625 36096 ft 490 kts
2026-05-07 09:16 13.05418 38.87735 36090 ft 490 kts
2026-05-07 09:16 13.12236 38.87850 36090 ft 490 kts
2026-05-07 09:17 13.19052 38.87968 36082 ft 490 kts
2026-05-07 09:17 13.25866 38.88091 36075 ft 490 kts
2026-05-07 09:18 13.32689 38.88215 36068 ft 490 kts
2026-05-07 09:18 13.39516 38.88338 36064 ft 491 kts
2026-05-07 09:19 13.46341 38.88461 36059 ft 491 kts
2026-05-07 09:19 13.53126 38.88583 36050 ft 491 kts
2026-05-07 09:20 13.60006 38.88706 36052 ft 491 kts
2026-05-07 09:20 13.66835 38.88831 36051 ft 491 kts
2026-05-07 09:21 13.73670 38.88954 36053 ft 492 kts
2026-05-07 09:21 13.80461 38.89074 36032 ft 491 kts
2026-05-07 09:22 13.87297 38.89197 36027 ft 491 kts
2026-05-07 09:22 13.94135 38.89322 36027 ft 491 kts
2026-05-07 09:23 14.00965 38.89445 36026 ft 491 kts
2026-05-07 09:23 14.07800 38.89555 36019 ft 492 kts 360°
2026-05-07 09:24 14.14638 38.89624 36020 ft 491 kts 360°
2026-05-07 09:24 14.21478 38.89691 36011 ft 492 kts 360°
2026-05-07 09:25 14.28327 38.89763 36007 ft 492 kts 360°
2026-05-07 09:25 14.35170 38.89840 36008 ft 492 kts 360°
2026-05-07 09:26 14.42013 38.89914 36000 ft 492 kts 360°
2026-05-07 09:26 14.48857 38.89988 36008 ft 492 kts 360°
2026-05-07 09:27 14.55702 38.90028 35993 ft 492 kts 359°
2026-05-07 09:28 14.65975 38.90026 35984 ft 492 kts 359°
2026-05-07 09:28 14.72824 38.90029 35984 ft 492 kts 359°
2026-05-07 09:29 14.79676 38.90037 35983 ft 492 kts 359°
2026-05-07 09:29 14.85371 38.90045 35980 ft 493 kts 359°
2026-05-07 09:30 14.92226 38.90053 35981 ft 493 kts 359°
2026-05-07 09:30 14.99080 38.90063 35978 ft 493 kts 359°
2026-05-07 09:31 15.05941 38.90069 35969 ft 493 kts 359°
2026-05-07 09:31 15.12799 38.90081 35973 ft 492 kts 359°
2026-05-07 09:32 15.19648 38.90089 35972 ft 492 kts 359°
2026-05-07 09:32 15.26501 38.90098 35967 ft 493 kts 359°
2026-05-07 09:33 15.33360 38.90193 35958 ft 493 kts
2026-05-07 09:33 15.40226 38.90453 35969 ft 494 kts
2026-05-07 09:34 15.47049 38.90681 35950 ft 494 kts
2026-05-07 09:34 15.53972 38.90900 35957 ft 495 kts
2026-05-07 09:35 15.60802 38.91123 35951 ft 494 kts
2026-05-07 09:35 15.67670 38.91355 35953 ft 494 kts
2026-05-07 09:36 15.74543 38.91583 35956 ft 494 kts
2026-05-07 09:36 15.81420 38.91816 35946 ft 495 kts
2026-05-07 09:37 15.88303 38.92050 35945 ft 495 kts
2026-05-07 09:37 15.95189 38.92283 35941 ft 495 kts
2026-05-07 09:38 16.02071 38.92513 35946 ft 494 kts
2026-05-07 09:38 16.08960 38.92743 35943 ft 495 kts
2026-05-07 09:39 16.15852 38.92974 35937 ft 496 kts
2026-05-07 09:39 16.22754 38.93208 35936 ft 496 kts
2026-05-07 09:40 16.29659 38.93442 35934 ft 496 kts
2026-05-07 09:40 16.36560 38.93674 35935 ft 496 kts
2026-05-07 09:41 16.43464 38.93907 35935 ft 496 kts
2026-05-07 09:41 16.50367 38.94140 35937 ft 496 kts
2026-05-07 09:42 16.57272 38.94377 35936 ft 497 kts
2026-05-07 09:42 16.64183 38.94610 35926 ft 497 kts
2026-05-07 09:43 16.71053 38.94840 35922 ft 497 kts
2026-05-07 09:43 16.77963 38.95077 35927 ft 497 kts
2026-05-07 09:44 16.84881 38.95311 35926 ft 497 kts
2026-05-07 09:44 16.91802 38.95545 35924 ft 497 kts
2026-05-07 09:45 16.98713 38.95781 35950 ft 496 kts
2026-05-07 09:45 17.05603 38.96015 36042 ft 495 kts
2026-05-07 09:46 17.12489 38.96255 36071 ft 496 kts
2026-05-07 09:46 17.19391 38.96488 36077 ft 497 kts
2026-05-07 09:47 17.26263 38.96720 36080 ft 498 kts
2026-05-07 09:47 17.33249 38.96957 36072 ft 499 kts
2026-05-07 09:48 17.40140 38.97192 36073 ft 499 kts
2026-05-07 09:48 17.47085 38.97429 36073 ft 499 kts
2026-05-07 09:49 17.54024 38.97667 36072 ft 499 kts
2026-05-07 09:49 17.60957 38.97903 36073 ft 498 kts
2026-05-07 09:50 17.67881 38.98142 36071 ft 497 kts
2026-05-07 09:50 17.74791 38.98379 36075 ft 497 kts
2026-05-07 09:51 17.81711 38.98616 36027 ft 498 kts
2026-05-07 09:51 17.88637 38.98854 36029 ft 498 kts
2026-05-07 09:52 17.95563 38.99091 36028 ft 498 kts
2026-05-07 09:52 18.02490 38.99327 36029 ft 498 kts
2026-05-07 09:53 18.09421 38.99565 36035 ft 499 kts
2026-05-07 09:53 18.16362 38.99807 36035 ft 499 kts
2026-05-07 09:54 18.23306 39.00047 36037 ft 500 kts
2026-05-07 09:54 18.30256 39.00285 36049 ft 500 kts
2026-05-07 09:55 18.37198 39.00525 36130 ft 498 kts
2026-05-07 09:55 18.44128 39.00763 36180 ft 499 kts
2026-05-07 09:56 18.51069 39.01005 36182 ft 500 kts
2026-05-07 09:56 18.58022 39.01246 36186 ft 501 kts
2026-05-07 09:57 18.65014 39.01489 36105 ft 504 kts
2026-05-07 09:57 18.72023 39.01733 36036 ft 504 kts
2026-05-07 09:58 18.79030 39.01972 36035 ft 503 kts
2026-05-07 09:58 18.85976 39.02214 36026 ft 502 kts
2026-05-07 09:59 18.92951 39.02457 36027 ft 501 kts 360°
2026-05-07 09:59 18.99914 39.02698 36018 ft 500 kts 360°
2026-05-07 10:00 19.06860 39.02941 36015 ft 499 kts 360°
2026-05-07 10:00 19.13801 39.03181 36009 ft 499 kts 360°
2026-05-07 10:01 19.20734 39.03424 36005 ft 499 kts 360°
2026-05-07 10:01 19.27674 39.03666 36002 ft 499 kts 360°
2026-05-07 10:02 19.34625 39.03908 35998 ft 500 kts 360°
2026-05-07 10:02 19.41582 39.04150 35988 ft 501 kts 360°
2026-05-07 10:03 19.48548 39.04394 35981 ft 502 kts 360°
2026-05-07 10:03 19.55536 39.04639 35984 ft 502 kts 360°
2026-05-07 10:04 19.62526 39.04884 35973 ft 503 kts 360°
2026-05-07 10:04 19.69479 39.05129 35969 ft 503 kts 360°
2026-05-07 10:05 19.76482 39.05374 35964 ft 503 kts 359°
2026-05-07 10:05 19.83482 39.05622 35957 ft 503 kts 359°
2026-05-07 10:06 19.90481 39.05867 35952 ft 503 kts 359°
2026-05-07 10:06 19.97476 39.06113 35946 ft 503 kts 359°
2026-05-07 10:07 20.04468 39.06359 35939 ft 503 kts 359°
2026-05-07 10:07 20.11462 39.06605 35911 ft 503 kts 359°
2026-05-07 10:08 20.18459 39.06854 35898 ft 503 kts 359°
2026-05-07 10:08 20.25452 39.07099 35883 ft 502 kts 359°
2026-05-07 10:09 20.32438 39.07347 35880 ft 502 kts 359°
2026-05-07 10:09 20.39421 39.07596 35904 ft 502 kts 359°
2026-05-07 10:10 20.46392 39.07842 35917 ft 501 kts 359°
2026-05-07 10:10 20.53366 39.08089 35917 ft 502 kts 359°
2026-05-07 10:11 20.60305 39.08334 35912 ft 502 kts 359°
2026-05-07 10:11 20.67338 39.08584 35906 ft 503 kts 359°
2026-05-07 10:12 20.74339 39.08833 35899 ft 504 kts 359°
2026-05-07 10:12 20.81343 39.09082 35895 ft 504 kts 359°
2026-05-07 10:13 20.88301 39.09329 35888 ft 504 kts 359°
2026-05-07 10:13 20.95309 39.09579 35887 ft 504 kts 359°
2026-05-07 10:14 21.02319 39.09831 35880 ft 504 kts 359°
2026-05-07 10:14 21.09330 39.10081 35881 ft 504 kts 359°
2026-05-07 10:15 21.16342 39.10328 35876 ft 504 kts 359°
2026-05-07 10:15 21.23349 39.10581 35871 ft 504 kts 359°
2026-05-07 10:16 21.30353 39.10833 35858 ft 504 kts 359°
2026-05-07 10:16 21.37354 39.11083 35861 ft 503 kts 359°
2026-05-07 10:17 21.44352 39.11334 35854 ft 503 kts 359°
2026-05-07 10:17 21.50171 39.11543 35868 ft 503 kts 359°
2026-05-07 10:18 21.57169 39.11796 35865 ft 503 kts 359°
2026-05-07 10:18 21.64164 39.12045 35860 ft 503 kts 359°
2026-05-07 10:19 21.71098 39.11626 35861 ft 496 kts 346°
2026-05-07 10:19 21.77683 39.09619 35860 ft 489 kts 334°
2026-05-07 10:20 21.83962 39.06814 35858 ft 489 kts 333°
2026-05-07 10:20 21.90250 39.03999 35862 ft 489 kts 333°
2026-05-07 10:21 21.96554 39.01220 35860 ft 490 kts 334°
2026-05-07 10:21 22.02867 38.98457 35858 ft 490 kts 334°
2026-05-07 10:22 22.09184 38.95689 35861 ft 490 kts 334°
2026-05-07 10:22 22.15505 38.92918 35861 ft 490 kts 333°
2026-05-07 10:23 22.21822 38.90144 35855 ft 490 kts 333°
2026-05-07 10:23 22.28140 38.87366 35856 ft 490 kts 333°
2026-05-07 10:24 22.34458 38.84585 35868 ft 490 kts 333°
2026-05-07 10:24 22.40774 38.81802 35858 ft 490 kts 333°
2026-05-07 10:25 22.47050 38.79036 35864 ft 490 kts 333°
2026-05-07 10:25 22.53362 38.76250 35856 ft 490 kts 333°
2026-05-07 10:26 22.59673 38.73460 35853 ft 490 kts 333°
2026-05-07 10:26 22.65985 38.70669 35854 ft 490 kts 333°
2026-05-07 10:27 22.72286 38.67874 35860 ft 489 kts 333°
2026-05-07 10:27 22.78587 38.65074 35857 ft 489 kts 333°
2026-05-07 10:28 22.84887 38.62276 35858 ft 489 kts 333°
2026-05-07 10:28 22.91186 38.59475 35847 ft 490 kts 333°
2026-05-07 10:29 22.97486 38.56670 35848 ft 490 kts 333°
2026-05-07 10:29 23.03794 38.53856 35840 ft 490 kts 333°
2026-05-07 10:30 23.13247 38.49639 35847 ft 490 kts 333°
2026-05-07 10:30 23.19502 38.46845 35836 ft 489 kts 333°
2026-05-07 10:31 23.25794 38.44027 35834 ft 489 kts 333°
2026-05-07 10:31 23.32082 38.41210 35824 ft 489 kts 333°
2026-05-07 10:32 23.38371 38.38393 35826 ft 489 kts 333°
2026-05-07 10:32 23.44665 38.35569 35818 ft 489 kts 333°
2026-05-07 10:33 23.50961 38.32740 35815 ft 490 kts 333°
2026-05-07 10:33 23.57259 38.29906 35808 ft 490 kts 333°
2026-05-07 10:34 23.63559 38.27071 35805 ft 490 kts 333°
2026-05-07 10:34 23.69858 38.24241 35796 ft 490 kts 333°
2026-05-07 10:35 23.76159 38.21411 35792 ft 490 kts 333°
2026-05-07 10:35 23.82461 38.18581 35792 ft 490 kts 333°
2026-05-07 10:36 23.88761 38.15746 35781 ft 490 kts 333°
2026-05-07 10:36 23.95066 38.12905 35771 ft 490 kts 333°
2026-05-07 10:37 24.01364 38.10063 35771 ft 490 kts 333°
2026-05-07 10:37 24.07660 38.07219 35784 ft 489 kts 333°
2026-05-07 10:38 24.13925 38.04320 35781 ft 487 kts 329°
2026-05-07 10:38 24.19638 38.00560 35779 ft 480 kts 320°
2026-05-07 10:39 24.25114 37.96376 35783 ft 480 kts 320°
2026-05-07 10:39 24.30603 37.92207 35769 ft 480 kts 320°
2026-05-07 10:40 24.36112 37.88054 35785 ft 481 kts 321°
2026-05-07 10:40 24.41632 37.83903 35791 ft 481 kts 321°
2026-05-07 10:41 24.47144 37.79751 35790 ft 481 kts 320°
2026-05-07 10:41 24.52657 37.75596 35796 ft 480 kts 320°
2026-05-07 10:42 24.58164 37.71441 35808 ft 480 kts 320°
2026-05-07 10:42 24.63669 37.67279 35814 ft 480 kts 320°
2026-05-07 10:43 24.69172 37.63113 35822 ft 480 kts 320°
2026-05-07 10:43 24.74676 37.58942 35831 ft 481 kts 320°
2026-05-07 10:44 24.80187 37.54763 35837 ft 481 kts 320°
2026-05-07 10:44 24.85702 37.50576 35848 ft 482 kts 320°
2026-05-07 10:45 24.91223 37.46383 35859 ft 482 kts 320°
2026-05-07 10:45 24.96739 37.42188 35869 ft 482 kts 320°
2026-05-07 10:46 25.02254 37.37987 35881 ft 482 kts 320°
2026-05-07 10:46 25.07761 37.33787 35889 ft 481 kts 320°
2026-05-07 10:47 25.13263 37.29587 35893 ft 480 kts 320°
2026-05-07 10:47 25.18756 37.25389 35900 ft 480 kts 320°
2026-05-07 10:48 25.24245 37.21189 35904 ft 480 kts 320°
2026-05-07 10:48 25.29727 37.16989 35908 ft 480 kts 320°
2026-05-07 10:49 25.35172 37.12808 35906 ft 480 kts 320°
2026-05-07 10:49 25.40651 37.08594 35909 ft 480 kts 320°
2026-05-07 10:50 25.46139 37.04390 35906 ft 480 kts 320°
2026-05-07 10:50 25.51627 37.00185 35910 ft 480 kts 320°
2026-05-07 10:51 25.57114 36.95973 35905 ft 480 kts 320°
2026-05-07 10:51 25.62603 36.91753 35909 ft 480 kts 320°
2026-05-07 10:52 25.68087 36.87531 35912 ft 480 kts 320°
2026-05-07 10:52 25.73569 36.83305 35920 ft 480 kts 320°
2026-05-07 10:53 25.79041 36.79067 35916 ft 480 kts 320°
2026-05-07 10:53 25.84515 36.74817 35916 ft 479 kts 320°
2026-05-07 10:54 25.89978 36.70571 35917 ft 479 kts 320°
2026-05-07 10:54 25.95406 36.66351 35914 ft 479 kts 320°
2026-05-07 10:55 26.00868 36.62098 35919 ft 479 kts 320°
2026-05-07 10:55 26.06327 36.57841 35916 ft 479 kts 320°
2026-05-07 10:56 26.11785 36.53579 35919 ft 479 kts 320°
2026-05-07 10:56 26.17209 36.49277 35915 ft 477 kts 316°
2026-05-07 10:57 26.21986 36.44257 35926 ft 470 kts 308°
2026-05-07 10:57 26.26493 36.38982 35917 ft 470 kts 308°
2026-05-07 10:58 26.31019 36.33717 35918 ft 470 kts 309°
2026-05-07 10:58 26.35561 36.28469 35916 ft 471 kts 309°
2026-05-07 10:59 26.40110 36.23217 35917 ft 470 kts 309°
2026-05-07 10:59 26.44654 36.17968 35917 ft 471 kts 309°
2026-05-07 11:00 26.49202 36.12705 35917 ft 471 kts 309°
2026-05-07 11:00 26.53751 36.07433 35922 ft 471 kts 309°
2026-05-07 11:01 26.58270 36.02189 35927 ft 471 kts 309°
2026-05-07 11:01 26.62807 35.96912 35922 ft 471 kts 309°
2026-05-07 11:02 26.67348 35.91635 35932 ft 471 kts 309°
2026-05-07 11:02 26.71882 35.86356 35932 ft 471 kts 309°
2026-05-07 11:03 26.76417 35.81067 35935 ft 471 kts 309°
2026-05-07 11:03 26.80950 35.75775 35935 ft 471 kts 309°
2026-05-07 11:04 26.84748 35.71340 35944 ft 471 kts 309°
2026-05-07 11:04 26.89280 35.66040 35944 ft 471 kts 309°
2026-05-07 11:05 26.93778 35.60768 35945 ft 471 kts 309°
2026-05-07 11:05 26.98305 35.55461 35946 ft 471 kts 309°
2026-05-07 11:06 27.02827 35.50150 35954 ft 471 kts 309°
2026-05-07 11:06 27.07349 35.44833 35954 ft 470 kts 309°
2026-05-07 11:07 27.11866 35.39518 35954 ft 470 kts 309°
2026-05-07 11:07 27.16377 35.34199 35954 ft 471 kts 309°
2026-05-07 11:08 27.20889 35.28873 35960 ft 471 kts 309°
2026-05-07 11:08 27.25397 35.23544 35964 ft 470 kts 309°
2026-05-07 11:09 27.29907 35.18210 35964 ft 470 kts 309°
2026-05-07 11:09 27.34410 35.12873 35963 ft 470 kts 309°
2026-05-07 11:10 27.38915 35.07530 35963 ft 470 kts 309°
2026-05-07 11:10 27.43413 35.02187 35963 ft 470 kts 309°
2026-05-07 11:11 27.47910 34.96838 35963 ft 470 kts 309°
2026-05-07 11:11 27.52445 34.91533 35962 ft 471 kts 312°
2026-05-07 11:12 27.57216 34.86467 35965 ft 471 kts 313°
2026-05-07 11:12 27.62027 34.81443 35964 ft 471 kts 313°
2026-05-07 11:13 27.66824 34.76392 35964 ft 472 kts 313°
2026-05-07 11:13 27.71606 34.71325 35963 ft 472 kts 313°
2026-05-07 11:14 27.76351 34.66286 35963 ft 472 kts 313°
2026-05-07 11:14 27.81126 34.61206 35962 ft 472 kts 313°
2026-05-07 11:15 27.85900 34.56126 35963 ft 471 kts 313°
2026-05-07 11:15 27.90668 34.51045 35965 ft 471 kts 313°
2026-05-07 11:16 27.95437 34.45957 35963 ft 471 kts 313°
2026-05-07 11:16 28.00158 34.40829 35961 ft 469 kts 309°
2026-05-07 11:17 28.04312 34.35179 35966 ft 466 kts 306°
2026-05-07 11:17 28.08385 34.29472 35963 ft 466 kts 306°
2026-05-07 11:18 28.12480 34.23771 35968 ft 466 kts 306°
2026-05-07 11:18 28.16585 34.18076 35969 ft 467 kts 306°
2026-05-07 11:19 28.20695 34.12371 35962 ft 467 kts 306°
2026-05-07 11:19 28.24806 34.06660 35967 ft 468 kts 306°
2026-05-07 11:20 28.28915 34.00941 35947 ft 467 kts 306°
2026-05-07 11:20 28.33007 33.95235 35960 ft 466 kts 306°
2026-05-07 11:21 28.37096 33.89525 35956 ft 466 kts 306°
2026-05-07 11:21 28.41160 33.83841 35950 ft 467 kts 306°
2026-05-07 11:22 28.45254 33.78112 35942 ft 467 kts 306°
2026-05-07 11:22 28.49344 33.72378 35933 ft 466 kts 306°
2026-05-07 11:23 28.53419 33.66659 35945 ft 466 kts 306°
2026-05-07 11:23 28.57492 33.60927 35946 ft 466 kts 306°
2026-05-07 11:24 28.61566 33.55186 35944 ft 466 kts 306°
2026-05-07 11:24 28.65644 33.49438 35956 ft 466 kts 307°
2026-05-07 11:25 28.69722 33.43691 35952 ft 467 kts 307°
2026-05-07 11:25 28.73800 33.37933 35954 ft 467 kts 307°
2026-05-07 11:26 28.77877 33.32172 35963 ft 467 kts 307°
2026-05-07 11:26 28.81945 33.26412 35974 ft 466 kts 307°
2026-05-07 11:27 28.86011 33.20647 35975 ft 467 kts 307°
2026-05-07 11:27 28.90075 33.14875 35981 ft 466 kts 307°
2026-05-07 11:28 28.94131 33.09109 35992 ft 466 kts 307°
2026-05-07 11:28 28.98183 33.03339 35995 ft 465 kts 307°
2026-05-07 11:29 29.02229 32.97572 35999 ft 465 kts 307°
2026-05-07 11:29 29.06269 32.91803 36008 ft 465 kts 307°
2026-05-07 11:30 29.10308 32.86028 36014 ft 465 kts 307°
2026-05-07 11:30 29.14341 32.80254 36031 ft 465 kts 307°
2026-05-07 11:31 29.18346 32.74514 36051 ft 465 kts 307°
2026-05-07 11:31 29.22399 32.68691 36047 ft 465 kts 307°
2026-05-07 11:32 29.28415 32.60038 36058 ft 465 kts 307°
2026-05-07 11:33 29.32424 32.54218 36066 ft 465 kts 307°
2026-05-07 11:33 29.36417 32.48384 36069 ft 465 kts 307°
2026-05-07 11:34 29.40410 32.42550 36073 ft 465 kts 307°
2026-05-07 11:34 29.44400 32.36716 36077 ft 464 kts 307°
2026-05-07 11:35 29.48385 32.30879 36086 ft 464 kts 307°
2026-05-07 11:35 29.52366 32.25042 36086 ft 464 kts 307°
2026-05-07 11:36 29.56336 32.19214 36090 ft 463 kts 307°
2026-05-07 11:36 29.60307 32.13373 36096 ft 463 kts 307°
2026-05-07 11:37 29.64269 32.07536 36090 ft 463 kts 307°
2026-05-07 11:37 29.68225 32.01703 36103 ft 462 kts 307°
2026-05-07 11:38 29.72176 31.95866 36101 ft 463 kts 307°
2026-05-07 11:38 29.76129 31.90017 36080 ft 463 kts 307°
2026-05-07 11:39 29.80055 31.84148 36073 ft 463 kts 306°
2026-05-07 11:39 29.83880 31.78185 36076 ft 463 kts 305°
2026-05-07 11:40 29.87696 31.72219 36071 ft 463 kts 306°
2026-05-07 11:40 29.91527 31.66259 36075 ft 462 kts 306°
2026-05-07 11:41 29.95362 31.60314 36078 ft 462 kts 306°
2026-05-07 11:41 29.99175 31.54404 36072 ft 462 kts 306°
2026-05-07 11:42 30.03010 31.48443 36074 ft 462 kts 306°
2026-05-07 11:42 30.06843 31.42479 36076 ft 462 kts 306°
2026-05-07 11:43 30.10960 31.36787 36068 ft 463 kts 315°
2026-05-07 11:43 30.15694 31.31754 36074 ft 462 kts 316°
2026-05-07 11:44 30.20434 31.26735 36072 ft 462 kts 316°
2026-05-07 11:44 30.25156 31.21691 36073 ft 462 kts 316°
2026-05-07 11:45 30.29860 31.16634 36074 ft 462 kts 316°
2026-05-07 11:45 30.34557 31.11572 36075 ft 461 kts 316°
2026-05-07 11:46 30.39253 31.06509 36083 ft 461 kts 316°
2026-05-07 11:46 30.43943 31.01440 36083 ft 461 kts 316°
2026-05-07 11:47 30.48630 30.96368 36084 ft 461 kts 316°
2026-05-07 11:47 30.53280 30.91331 36085 ft 460 kts 316°
2026-05-07 11:48 30.57961 30.86255 36080 ft 461 kts 316°
2026-05-07 11:48 30.61883 30.81998 36084 ft 460 kts 316°
2026-05-07 11:49 30.67304 30.76098 36092 ft 460 kts 316°
2026-05-07 11:49 30.71967 30.71016 36097 ft 459 kts 316°
2026-05-07 11:50 30.75871 30.66762 36102 ft 459 kts 316°
2026-05-07 11:50 30.80525 30.61677 36103 ft 459 kts 316°
2026-05-07 11:51 30.85179 30.56589 36108 ft 459 kts 316°
2026-05-07 11:51 30.89798 30.51534 36109 ft 459 kts 316°
2026-05-07 11:52 30.94438 30.46443 36111 ft 458 kts 316°
2026-05-07 11:52 30.99081 30.41341 36123 ft 459 kts 316°
2026-05-07 11:53 31.03723 30.36236 36119 ft 459 kts 316°
2026-05-07 11:53 31.08391 30.31166 36132 ft 459 kts 319°
2026-05-07 11:54 31.13615 30.26883 36126 ft 460 kts 327°
2026-05-07 11:54 31.19072 30.22989 36130 ft 460 kts 327°
2026-05-07 11:55 31.24528 30.19074 36125 ft 460 kts 327°
2026-05-07 11:55 31.29966 30.15133 36129 ft 460 kts 327°
2026-05-07 11:56 31.35398 30.11177 36129 ft 460 kts 327°
2026-05-07 11:56 31.40827 30.07215 36130 ft 460 kts 327°
2026-05-07 11:57 31.46255 30.03251 36126 ft 460 kts 327°
2026-05-07 11:57 31.51681 29.99283 36128 ft 460 kts 327°
2026-05-07 11:58 31.57100 29.95316 36127 ft 459 kts 327°
2026-05-07 11:58 31.62508 29.91350 36125 ft 458 kts 327°
2026-05-07 11:59 31.67876 29.87408 36128 ft 458 kts 327°
2026-05-07 11:59 31.73270 29.83437 36147 ft 457 kts 327°
2026-05-07 12:00 31.78662 29.79468 36146 ft 457 kts 327°
2026-05-07 12:00 31.84055 29.75494 36145 ft 458 kts 327°
2026-05-07 12:01 31.89448 29.71511 36146 ft 458 kts 327°
2026-05-07 12:01 31.94839 29.67524 36131 ft 458 kts 327°
2026-05-07 12:02 32.00229 29.63530 36145 ft 458 kts 327°
2026-05-07 12:02 32.05614 29.59536 36146 ft 457 kts 327°
2026-05-07 12:03 32.11002 29.55534 36145 ft 457 kts 327°
2026-05-07 12:03 32.16378 29.51529 36131 ft 457 kts 327°
2026-05-07 12:04 32.21748 29.47519 36129 ft 456 kts 327°
2026-05-07 12:04 32.27107 29.43512 36128 ft 456 kts 327°
2026-05-07 12:05 32.32460 29.39503 36145 ft 455 kts 327°
2026-05-07 12:05 32.37806 29.35494 36134 ft 455 kts 327°
2026-05-07 12:06 32.43138 29.31488 36127 ft 453 kts 327°
2026-05-07 12:06 32.48453 29.27492 36146 ft 452 kts 327°
2026-05-07 12:07 32.53760 29.23496 36139 ft 452 kts 327°
2026-05-07 12:07 32.59025 29.19527 36146 ft 451 kts 327°
2026-05-07 12:08 32.64319 29.15528 36134 ft 451 kts 327°
2026-05-07 12:08 32.69581 29.11512 36158 ft 449 kts 328°
2026-05-07 12:09 32.74850 29.07581 36147 ft 446 kts 328°
2026-05-07 12:09 32.80019 29.03600 36146 ft 439 kts 326°
2026-05-07 12:10 32.85159 28.99690 36155 ft 438 kts 328°
2026-05-07 12:10 32.90298 28.95836 36128 ft 434 kts 327°
2026-05-07 12:11 32.95406 28.91958 36159 ft 438 kts 327°
2026-05-07 12:11 33.00600 28.87964 36146 ft 446 kts 327°
2026-05-07 12:12 33.05820 28.83967 36129 ft 441 kts 327°
2026-05-07 12:12 33.10961 28.80097 36149 ft 438 kts 327°
2026-05-07 12:13 33.16082 28.76159 36155 ft 439 kts 326°
2026-05-07 12:13 33.21168 28.72145 36130 ft 439 kts 327°
2026-05-07 12:14 33.26312 28.68202 36117 ft 439 kts 326°
2026-05-07 12:14 33.31387 28.64248 36159 ft 435 kts 327°
2026-05-07 12:15 33.36550 28.60470 36154 ft 436 kts 327°
2026-05-07 12:15 33.41650 28.56534 36151 ft 439 kts 326°
2026-05-07 12:16 33.46814 28.52500 36168 ft 443 kts 326°
2026-05-07 12:16 33.51940 28.48526 36165 ft 442 kts 327°
2026-05-07 12:17 33.57022 28.44501 36165 ft 436 kts 326°
2026-05-07 12:17 33.62171 28.40603 36157 ft 437 kts 328°
2026-05-07 12:18 33.67277 28.36662 36161 ft 436 kts 326°
2026-05-07 12:18 33.72352 28.32667 36172 ft 437 kts 326°
2026-05-07 12:19 33.77457 28.28685 36169 ft 438 kts 326°
2026-05-07 12:19 33.82686 28.24906 36161 ft 439 kts 330°
2026-05-07 12:20 33.88071 28.21421 36167 ft 439 kts 331°
2026-05-07 12:20 33.93463 28.17948 36166 ft 439 kts 330°
2026-05-07 12:21 33.98846 28.14458 36169 ft 439 kts 330°
2026-05-07 12:21 34.04220 28.10955 36166 ft 439 kts 330°
2026-05-07 12:22 34.09589 28.07446 36167 ft 438 kts 330°
2026-05-07 12:22 34.14940 28.03947 36160 ft 437 kts 330°
2026-05-07 12:23 34.20276 28.00449 36155 ft 436 kts 330°
2026-05-07 12:23 34.25603 27.96952 36158 ft 435 kts 330°
2026-05-07 12:24 34.30926 27.93453 36157 ft 435 kts 330°
2026-05-07 12:24 34.36242 27.89953 36156 ft 435 kts 330°
2026-05-07 12:25 34.41527 27.86471 36158 ft 435 kts 330°
2026-05-07 12:25 34.46849 27.82961 36156 ft 436 kts 330°
2026-05-07 12:26 34.52174 27.79438 36158 ft 436 kts 330°
2026-05-07 12:26 34.57499 27.75911 36156 ft 436 kts 330°
2026-05-07 12:27 34.62830 27.72377 36157 ft 437 kts 330°
2026-05-07 12:27 34.68161 27.68838 36156 ft 437 kts 330°
2026-05-07 12:28 34.73494 27.65291 36156 ft 437 kts 330°
2026-05-07 12:28 34.78826 27.61740 36157 ft 437 kts 330°
2026-05-07 12:29 34.84153 27.58187 36157 ft 437 kts 330°
2026-05-07 12:29 34.89480 27.54631 36158 ft 437 kts 330°
2026-05-07 12:30 34.94807 27.51067 36158 ft 436 kts 330°
2026-05-07 12:30 35.00128 27.47502 36157 ft 436 kts 330°
2026-05-07 12:31 35.05447 27.43929 36159 ft 437 kts 330°
2026-05-07 12:31 35.10772 27.40350 36156 ft 437 kts 330°
2026-05-07 12:32 35.16095 27.36772 36158 ft 437 kts 329°
2026-05-07 12:32 35.21417 27.33186 36157 ft 437 kts 329°
2026-05-07 12:33 35.29400 27.27794 36156 ft 437 kts 329°
2026-05-07 12:33 35.34721 27.24195 36157 ft 437 kts 329°
2026-05-07 12:34 35.40040 27.20590 36156 ft 437 kts 329°
2026-05-07 12:34 35.45363 27.16979 36157 ft 437 kts 329°
2026-05-07 12:35 35.50684 27.13362 36157 ft 437 kts 329°
2026-05-07 12:35 35.56011 27.09738 36155 ft 438 kts 329°
2026-05-07 12:36 35.60436 27.06718 36159 ft 438 kts 329°
2026-05-07 12:36 35.66637 27.02485 36154 ft 438 kts 329°
2026-05-07 12:37 35.71969 26.98839 36157 ft 438 kts 329°
2026-05-07 12:37 35.76438 26.95778 36157 ft 438 kts 329°
2026-05-07 12:38 35.81744 26.92101 36152 ft 437 kts 328°
2026-05-07 12:38 35.87034 26.88452 36162 ft 440 kts 329°
2026-05-07 12:39 35.92358 26.84845 36152 ft 434 kts 329°
2026-05-07 12:39 35.97637 26.81225 36165 ft 434 kts 329°
2026-05-07 12:40 36.02885 26.77575 36158 ft 435 kts 328°
2026-05-07 12:40 36.08198 26.73886 36164 ft 439 kts 329°
2026-05-07 12:41 36.13587 26.70197 36164 ft 444 kts 329°
2026-05-07 12:41 36.18996 26.66442 36157 ft 446 kts 329°
2026-05-07 12:42 36.24445 26.62682 36165 ft 451 kts 328°
2026-05-07 12:42 36.29915 26.58776 36148 ft 455 kts 328°
2026-05-07 12:43 36.35436 26.54923 36158 ft 456 kts 329°
2026-05-07 12:43 36.40993 26.51117 36165 ft 459 kts 329°
2026-05-07 12:44 36.46567 26.47227 36162 ft 461 kts 329°
2026-05-07 12:44 36.52162 26.43339 36159 ft 456 kts 328°
2026-05-07 12:45 36.57643 26.39451 36161 ft 454 kts 329°
2026-05-07 12:45 36.63169 26.35585 36157 ft 457 kts 329°
2026-05-07 12:46 36.68677 26.31712 36160 ft 458 kts 328°
2026-05-07 12:46 36.74231 26.27794 36150 ft 459 kts 328°
2026-05-07 12:47 36.79794 26.23866 36147 ft 459 kts 328°
2026-05-07 12:47 36.85352 26.19936 36146 ft 459 kts 328°
2026-05-07 12:48 36.90884 26.16023 36153 ft 458 kts 328°
2026-05-07 12:48 36.96443 26.12122 36145 ft 458 kts 328°
2026-05-07 12:49 37.01980 26.08191 36150 ft 456 kts 328°
2026-05-07 12:49 37.07489 26.04249 36125 ft 455 kts 329°
2026-05-07 12:50 37.12989 26.00325 36116 ft 455 kts 328°
2026-05-07 12:50 37.18449 25.96389 36136 ft 456 kts 328°
2026-05-07 12:51 37.24022 25.92424 36154 ft 465 kts 328°
2026-05-07 12:51 37.29637 25.88464 36148 ft 460 kts 329°
2026-05-07 12:52 37.35210 25.84464 36149 ft 462 kts 328°
2026-05-07 12:52 37.40774 25.80445 36147 ft 460 kts 327°
2026-05-07 12:53 37.46242 25.76293 36125 ft 458 kts 328°
2026-05-07 12:53 37.51749 25.72378 36164 ft 458 kts 329°
2026-05-07 12:54 37.57359 25.68429 36156 ft 463 kts 328°
2026-05-07 12:54 37.62970 25.64362 36159 ft 466 kts 327°
2026-05-07 12:55 37.68532 25.60166 36175 ft 463 kts 328°
2026-05-07 12:55 37.74152 25.56217 36172 ft 463 kts 329°
2026-05-07 12:56 37.79746 25.52177 36184 ft 463 kts 329°
2026-05-07 12:56 37.85342 25.48138 36156 ft 462 kts 328°
2026-05-07 12:57 37.90910 25.44002 36148 ft 466 kts 328°
2026-05-07 12:57 37.96479 25.39879 36148 ft 464 kts 328°
2026-05-07 12:58 38.02068 25.35813 36150 ft 463 kts 328°
2026-05-07 12:58 38.07638 25.31736 36147 ft 461 kts 328°
2026-05-07 12:59 38.13186 25.27652 36148 ft 461 kts 328°
2026-05-07 12:59 38.18732 25.23561 36146 ft 460 kts 328°
2026-05-07 13:00 38.24270 25.19469 36151 ft 461 kts 328°
2026-05-07 13:00 38.29815 25.15366 36149 ft 462 kts 328°
2026-05-07 13:01 38.35371 25.11258 36144 ft 462 kts 328°
2026-05-07 13:01 38.40933 25.07127 36151 ft 463 kts 328°
2026-05-07 13:02 38.46500 25.02983 36146 ft 463 kts 328°
2026-05-07 13:02 38.52057 24.98823 36134 ft 463 kts 328°
2026-05-07 13:03 38.57626 24.94667 36131 ft 464 kts 328°
2026-05-07 13:03 38.63210 24.90507 36128 ft 466 kts 328°
2026-05-07 13:04 38.68811 24.86318 36135 ft 466 kts 328°
2026-05-07 13:04 38.74372 24.82139 36133 ft 466 kts 328°
2026-05-07 13:05 38.79964 24.77929 36133 ft 466 kts 328°
2026-05-07 13:05 38.85549 24.73721 36132 ft 466 kts 328°
2026-05-07 13:06 38.91134 24.69511 36125 ft 465 kts 328°
2026-05-07 13:06 38.96714 24.65296 36135 ft 465 kts 328°
2026-05-07 13:07 39.02290 24.61066 36118 ft 465 kts 327°
2026-05-07 13:07 39.07867 24.56833 36117 ft 465 kts 327°
2026-05-07 13:08 39.13443 24.52592 36120 ft 465 kts 328°
2026-05-07 13:08 39.19013 24.48344 36125 ft 466 kts 327°
2026-05-07 13:09 39.24595 24.44086 36124 ft 467 kts 327°
2026-05-07 13:09 39.30187 24.39812 36122 ft 467 kts 327°
2026-05-07 13:10 39.35790 24.35521 36120 ft 468 kts 327°
2026-05-07 13:10 39.41401 24.31213 36113 ft 469 kts 327°
2026-05-07 13:11 39.47020 24.26891 36113 ft 470 kts 327°
2026-05-07 13:11 39.52654 24.22552 36109 ft 471 kts 327°
2026-05-07 13:12 39.58290 24.18203 36108 ft 472 kts 327°
2026-05-07 13:12 39.63932 24.13837 36108 ft 472 kts 327°
2026-05-07 13:13 39.69577 24.09464 36108 ft 473 kts 327°
2026-05-07 13:13 39.75226 24.05079 36111 ft 473 kts 327°
2026-05-07 13:14 39.80837 24.00714 36112 ft 473 kts 327°
2026-05-07 13:14 39.86486 23.96311 36111 ft 474 kts 327°
2026-05-07 13:15 39.92135 23.91901 36103 ft 473 kts 327°
2026-05-07 13:15 39.97776 23.87486 36107 ft 473 kts 327°
2026-05-07 13:16 40.03414 23.83067 36110 ft 473 kts 327°
2026-05-07 13:16 40.09052 23.78640 36110 ft 473 kts 327°
2026-05-07 13:17 40.14692 23.74202 36109 ft 473 kts 327°
2026-05-07 13:17 40.20326 23.69756 36114 ft 473 kts 327°
2026-05-07 13:18 40.25969 23.65298 36107 ft 473 kts 327°
2026-05-07 13:18 40.31605 23.60838 36112 ft 473 kts 327°
2026-05-07 13:19 40.37242 23.56365 36104 ft 473 kts 327°
2026-05-07 13:19 40.42877 23.51889 36101 ft 473 kts 327°
2026-05-07 13:20 40.48474 23.47432 36104 ft 474 kts 327°
2026-05-07 13:20 40.54101 23.42940 36102 ft 473 kts 327°
2026-05-07 13:21 40.59730 23.38439 36099 ft 473 kts 327°
2026-05-07 13:21 40.65353 23.33932 36102 ft 473 kts 327°
2026-05-07 13:22 40.70972 23.29424 36099 ft 473 kts 327°
2026-05-07 13:22 40.76591 23.24905 36102 ft 473 kts 327°
2026-05-07 13:23 40.82206 23.20380 36102 ft 473 kts 327°
2026-05-07 13:23 40.87825 23.15843 36101 ft 474 kts 327°
2026-05-07 13:24 40.92499 23.12062 36101 ft 474 kts 327°
2026-05-07 13:24 40.98115 23.07509 36105 ft 474 kts 327°
2026-05-07 13:25 41.03735 23.02943 36099 ft 474 kts 327°
2026-05-07 13:25 41.09354 22.98368 36105 ft 474 kts 327°
2026-05-07 13:26 41.14971 22.93786 36106 ft 474 kts 327°
2026-05-07 13:26 41.20583 22.89202 36112 ft 473 kts 327°
2026-05-07 13:27 41.26193 22.84607 36128 ft 474 kts 326°
2026-05-07 13:27 41.31816 22.80019 36126 ft 475 kts 328°
2026-05-07 13:28 41.37795 22.76262 36122 ft 476 kts 336°
2026-05-07 13:28 41.43938 22.72947 36120 ft 476 kts 336°
2026-05-07 13:29 41.50079 22.69610 36118 ft 477 kts 335°
2026-05-07 13:29 41.56210 22.66227 36121 ft 477 kts 335°
2026-05-07 13:30 41.62343 22.62816 36124 ft 477 kts 335°
2026-05-07 13:30 41.68476 22.59399 36121 ft 478 kts 335°
2026-05-07 13:31 41.74617 22.55976 36123 ft 479 kts 335°
2026-05-07 13:31 41.80764 22.52537 36122 ft 479 kts 335°
2026-05-07 13:32 41.86922 22.49088 36117 ft 479 kts 335°
2026-05-07 13:32 41.93034 22.45660 36123 ft 479 kts 335°
2026-05-07 13:33 41.99189 22.42198 36113 ft 480 kts 335°
2026-05-07 13:33 42.05340 22.38732 36113 ft 479 kts 335°
2026-05-07 13:34 42.14556 22.33522 36121 ft 479 kts 335°
2026-05-07 13:35 42.20709 22.30036 36127 ft 480 kts 335°
2026-05-07 13:35 42.26860 22.26529 36118 ft 480 kts 334°
2026-05-07 13:36 42.32601 22.22037 36120 ft 476 kts 322°
2026-05-07 13:36 42.37657 22.16305 36109 ft 474 kts 316°
2026-05-07 13:37 42.42568 22.10354 36116 ft 474 kts 316°
2026-05-07 13:37 42.47486 22.04416 36107 ft 474 kts 316°
2026-05-07 13:38 42.52392 21.98524 36104 ft 474 kts 316°
2026-05-07 13:38 42.57334 21.92592 36110 ft 474 kts 316°
2026-05-07 13:39 42.62276 21.86653 36112 ft 474 kts 316°
2026-05-07 13:39 42.67213 21.80697 36098 ft 474 kts 316°
2026-05-07 13:40 42.72147 21.74736 36091 ft 475 kts 316°
2026-05-07 13:40 42.77084 21.68755 36094 ft 475 kts 316°
2026-05-07 13:41 42.82020 21.62761 36093 ft 476 kts 316°
2026-05-07 13:41 42.86958 21.56750 36088 ft 476 kts 316°
2026-05-07 13:42 42.91894 21.50731 36089 ft 476 kts 316°
2026-05-07 13:42 42.96826 21.44706 36096 ft 476 kts 316°
2026-05-07 13:43 43.01758 21.38665 36091 ft 476 kts 316°
2026-05-07 13:43 43.06690 21.32611 36089 ft 476 kts 316°
2026-05-07 13:44 43.11616 21.26545 36080 ft 476 kts 316°
2026-05-07 13:44 43.16542 21.20473 36082 ft 477 kts 316°
2026-05-07 13:45 43.21466 21.14386 36087 ft 476 kts 316°
2026-05-07 13:45 43.26387 21.08288 36077 ft 477 kts 316°
2026-05-07 13:46 43.31314 21.02177 36065 ft 477 kts 316°
2026-05-07 13:46 43.36233 20.96049 36070 ft 478 kts 315°
2026-05-07 13:47 43.41157 20.89906 36053 ft 478 kts 315°
2026-05-07 13:47 43.45861 20.83457 36032 ft 477 kts 311°
2026-05-07 13:48 43.50443 20.76843 36048 ft 477 kts 311°
2026-05-07 13:48 43.55018 20.70228 36028 ft 477 kts 311°
2026-05-07 13:49 43.59606 20.63622 36031 ft 477 kts 311°
2026-05-07 13:49 43.64170 20.57042 36027 ft 478 kts 311°
2026-05-07 13:50 43.68807 20.50349 36032 ft 479 kts 311°
2026-05-07 13:50 43.73385 20.43730 36027 ft 480 kts 311°
2026-05-07 13:51 43.78000 20.37042 36031 ft 480 kts 311°
2026-05-07 13:51 43.82613 20.30339 36030 ft 481 kts 311°
2026-05-07 13:52 43.87223 20.23621 36020 ft 481 kts 311°
2026-05-07 13:52 43.91837 20.16885 36024 ft 481 kts 311°
2026-05-07 13:53 43.96442 20.10142 36028 ft 481 kts 311°
2026-05-07 13:53 44.01044 20.03387 36029 ft 481 kts 311°
2026-05-07 13:54 44.05646 19.96620 36024 ft 481 kts 311°
2026-05-07 13:54 44.10241 19.89843 36030 ft 481 kts 311°
2026-05-07 13:55 44.14827 19.83063 36027 ft 481 kts 311°
2026-05-07 13:55 44.19373 19.76325 36023 ft 480 kts 311°
2026-05-07 13:56 44.23944 19.69538 36029 ft 480 kts 310°
2026-05-07 13:56 44.28504 19.62748 36050 ft 479 kts 310°
2026-05-07 13:57 44.33055 19.55955 36035 ft 479 kts 310°
2026-05-07 13:57 44.37599 19.49154 36035 ft 479 kts 310°
2026-05-07 13:58 44.42136 19.42349 36036 ft 479 kts 310°
2026-05-07 13:58 44.46678 19.35524 36035 ft 479 kts 310°
2026-05-07 13:59 44.51211 19.28689 36040 ft 479 kts 310°
2026-05-07 13:59 44.55740 19.21838 36051 ft 479 kts 310°
2026-05-07 14:00 44.60266 19.14987 36044 ft 479 kts 310°
2026-05-07 14:00 44.64790 19.08119 36036 ft 479 kts 310°
2026-05-07 14:01 44.69312 19.01237 36054 ft 479 kts 310°
2026-05-07 14:01 44.73823 18.94350 36036 ft 479 kts 310°
2026-05-07 14:02 44.78335 18.87449 36046 ft 479 kts 310°
2026-05-07 14:02 44.82842 18.80538 36032 ft 479 kts 310°
2026-05-07 14:03 44.87338 18.73625 36035 ft 479 kts 310°
2026-05-07 14:03 44.91834 18.66695 36036 ft 478 kts 310°
2026-05-07 14:04 44.96323 18.59757 36032 ft 478 kts 310°
2026-05-07 14:04 45.00804 18.52816 36034 ft 478 kts 310°
2026-05-07 14:05 45.05282 18.45863 36033 ft 478 kts 310°
2026-05-07 14:05 45.09760 18.38898 36027 ft 478 kts 310°
2026-05-07 14:06 45.14505 18.32276 36029 ft 479 kts 314°
2026-05-07 14:06 45.19338 18.25850 36028 ft 479 kts 314°
2026-05-07 14:07 45.24195 18.19369 36031 ft 480 kts 314°
2026-05-07 14:07 45.29033 18.12851 36028 ft 480 kts 314°
2026-05-07 14:08 45.33863 18.06304 36023 ft 480 kts 314°
2026-05-07 14:08 45.38694 17.99738 36020 ft 480 kts 314°
2026-05-07 14:09 45.43518 17.93169 36021 ft 480 kts 313°
2026-05-07 14:09 45.48341 17.86586 36017 ft 480 kts 313°
2026-05-07 14:10 45.52342 17.81114 36013 ft 480 kts 313°
2026-05-07 14:10 45.57961 17.73406 36011 ft 479 kts 313°
2026-05-07 14:11 45.61954 17.67917 36007 ft 479 kts 313°
2026-05-07 14:11 45.66742 17.61314 36006 ft 479 kts 313°
2026-05-07 14:12 45.71533 17.54691 36011 ft 479 kts 313°
2026-05-07 14:12 45.76320 17.48064 36013 ft 479 kts 313°
2026-05-07 14:13 45.81099 17.41429 36012 ft 478 kts 313°
2026-05-07 14:13 45.85869 17.34790 36011 ft 478 kts 313°
2026-05-07 14:14 45.90640 17.28133 36010 ft 478 kts 313°
2026-05-07 14:14 45.95404 17.21466 36009 ft 478 kts 313°
2026-05-07 14:15 46.00171 17.14782 36012 ft 479 kts 313°
2026-05-07 14:15 46.04937 17.08076 35999 ft 480 kts 313°
2026-05-07 14:16 46.09707 17.01351 35988 ft 480 kts 312°
2026-05-07 14:16 46.14476 16.94608 35994 ft 480 kts 312°
2026-05-07 14:17 46.19243 16.87852 35985 ft 481 kts 312°
2026-05-07 14:17 46.24007 16.81082 35990 ft 481 kts 312°
2026-05-07 14:18 46.28772 16.74297 35980 ft 481 kts 312°
2026-05-07 14:18 46.33502 16.67543 35984 ft 481 kts 312°
2026-05-07 14:19 46.38260 16.60727 35982 ft 481 kts 312°
2026-05-07 14:19 46.43018 16.53895 35984 ft 482 kts 312°
2026-05-07 14:20 46.47779 16.47047 35979 ft 482 kts 312°
2026-05-07 14:20 46.52530 16.40190 35967 ft 482 kts 311°
2026-05-07 14:21 46.57280 16.33321 35957 ft 482 kts 311°
2026-05-07 14:21 46.62020 16.26441 35953 ft 481 kts 311°
2026-05-07 14:22 46.66758 16.19548 35953 ft 481 kts 311°
2026-05-07 14:22 46.71484 16.12657 35947 ft 481 kts 311°
2026-05-07 14:23 46.76209 16.05747 35945 ft 481 kts 311°
2026-05-07 14:23 46.80961 15.98872 35937 ft 482 kts 315°
2026-05-07 14:24 46.86123 15.92578 35935 ft 484 kts 317°
2026-05-07 14:24 46.91357 15.86377 35937 ft 485 kts 317°
2026-05-07 14:25 46.96579 15.80131 35924 ft 485 kts 317°
2026-05-07 14:25 47.01789 15.73836 35927 ft 486 kts 317°
2026-05-07 14:26 47.06997 15.67512 35916 ft 487 kts 317°
2026-05-07 14:26 47.12213 15.61163 35916 ft 487 kts 317°
2026-05-07 14:27 47.17433 15.54798 35919 ft 488 kts 317°
2026-05-07 14:27 47.22653 15.48411 35916 ft 488 kts 317°
2026-05-07 14:28 47.27873 15.42010 35915 ft 488 kts 317°
2026-05-07 14:28 47.33085 15.35599 35926 ft 488 kts 317°
2026-05-07 14:29 47.38293 15.29181 35922 ft 488 kts 317°
2026-05-07 14:29 47.43496 15.22750 35939 ft 487 kts 317°
2026-05-07 14:30 47.48696 15.16302 35940 ft 489 kts 317°
2026-05-07 14:30 47.53905 15.09826 35934 ft 489 kts 317°
2026-05-07 14:31 47.59115 15.03339 35937 ft 489 kts 316°
2026-05-07 14:31 47.64318 14.96837 35949 ft 489 kts 316°
2026-05-07 14:32 47.69489 14.90270 35954 ft 489 kts 315°
2026-05-07 14:32 47.74531 14.83485 35946 ft 489 kts 314°
2026-05-07 14:33 47.79550 14.76655 35950 ft 489 kts 314°
2026-05-07 14:33 47.84539 14.69889 35958 ft 489 kts 314°
2026-05-07 14:34 47.89568 14.63081 35971 ft 488 kts 314°
2026-05-07 14:34 47.94592 14.56270 35975 ft 488 kts 314°
2026-05-07 14:35 47.99612 14.49442 35981 ft 488 kts 314°
2026-05-07 14:35 48.04626 14.42606 35982 ft 488 kts 314°
2026-05-07 14:36 48.09637 14.35747 35997 ft 488 kts 314°
2026-05-07 14:36 48.14648 14.28875 35994 ft 488 kts 314°
2026-05-07 14:37 48.19650 14.21994 35991 ft 489 kts 314°
2026-05-07 14:37 48.27163 14.11621 35982 ft 490 kts 314°
2026-05-07 14:38 48.32174 14.04681 35996 ft 490 kts 314°
2026-05-07 14:38 48.37174 13.97739 35991 ft 489 kts 314°
2026-05-07 14:39 48.42171 13.90776 35991 ft 489 kts 314°
2026-05-07 14:39 48.47163 13.83805 36007 ft 489 kts 314°
2026-05-07 14:40 48.52154 13.76813 36002 ft 490 kts 314°
2026-05-07 14:40 48.57145 13.69800 36003 ft 490 kts 314°
2026-05-07 14:41 48.62128 13.62782 36000 ft 490 kts 314°
2026-05-07 14:41 48.66972 13.55554 36002 ft 488 kts 308°
2026-05-07 14:42 48.71382 13.47770 35996 ft 487 kts 307°
2026-05-07 14:42 48.75753 13.39929 36003 ft 487 kts 307°
2026-05-07 14:43 48.80140 13.32090 36005 ft 488 kts 308°
2026-05-07 14:43 48.84537 13.24257 36003 ft 487 kts 308°
2026-05-07 14:44 48.88931 13.16422 35996 ft 487 kts 308°
2026-05-07 14:44 48.93326 13.08572 35999 ft 488 kts 308°
2026-05-07 14:45 48.97718 13.00696 36002 ft 488 kts 308°
2026-05-07 14:45 49.02099 12.92811 36007 ft 488 kts 308°
2026-05-07 14:46 49.06475 12.84910 36009 ft 488 kts 308°
2026-05-07 14:46 49.10850 12.76995 36011 ft 488 kts 308°
2026-05-07 14:47 49.15214 12.69065 36017 ft 487 kts 308°
2026-05-07 14:47 49.19572 12.61131 36021 ft 487 kts 308°
2026-05-07 14:48 49.23897 12.53227 36017 ft 488 kts 308°
2026-05-07 14:48 49.28251 12.45250 36018 ft 488 kts 308°
2026-05-07 14:49 49.32606 12.37245 36008 ft 489 kts 308°
2026-05-07 14:49 49.36959 12.29224 36012 ft 489 kts 308°
2026-05-07 14:50 49.41305 12.21189 36014 ft 489 kts 308°
2026-05-07 14:50 49.45650 12.13133 36013 ft 489 kts 308°
2026-05-07 14:51 49.49985 12.05066 36009 ft 489 kts 308°
2026-05-07 14:51 49.54314 11.96987 36007 ft 489 kts 308°
2026-05-07 14:52 49.58639 11.88894 36006 ft 489 kts 308°
2026-05-07 14:52 49.62958 11.80790 35999 ft 489 kts 308°
2026-05-07 14:53 49.67265 11.72675 36003 ft 488 kts 308°
2026-05-07 14:53 49.71565 11.64552 36006 ft 488 kts 308°
2026-05-07 14:54 49.75132 11.57794 36011 ft 488 kts 308°
2026-05-07 14:54 49.79418 11.49647 36006 ft 488 kts 308°
2026-05-07 14:55 49.83695 11.41494 36014 ft 488 kts 307°
2026-05-07 14:55 49.87965 11.33331 36021 ft 487 kts 307°
2026-05-07 14:56 49.92227 11.25160 36018 ft 487 kts 307°
2026-05-07 14:56 49.96485 11.16968 36018 ft 487 kts 307°
2026-05-07 14:57 50.00737 11.08768 36017 ft 487 kts 307°
2026-05-07 14:57 50.04980 11.00553 36018 ft 487 kts 307°
2026-05-07 14:58 50.09214 10.92329 36033 ft 487 kts 307°
2026-05-07 14:58 50.13416 10.84139 36047 ft 487 kts 307°
2026-05-07 14:59 50.17643 10.75881 36036 ft 487 kts 307°
2026-05-07 14:59 50.21857 10.67626 36047 ft 486 kts 307°
2026-05-07 15:00 50.26064 10.59355 36043 ft 486 kts 307°
2026-05-07 15:00 50.30262 10.51069 36049 ft 485 kts 307°
2026-05-07 15:01 50.34452 10.42779 36038 ft 486 kts 307°
2026-05-07 15:01 50.38635 10.34470 36051 ft 486 kts 307°
2026-05-07 15:02 50.42817 10.26141 36049 ft 486 kts 307°
2026-05-07 15:02 50.46990 10.17806 36053 ft 486 kts 307°
2026-05-07 15:03 50.51156 10.09458 36036 ft 486 kts 307°
2026-05-07 15:03 50.55313 10.01099 36057 ft 485 kts 307°
2026-05-07 15:04 50.59466 9.92722 36036 ft 486 kts 307°
2026-05-07 15:04 50.63613 9.84327 36051 ft 486 kts 307°
2026-05-07 15:05 50.67753 9.75918 36035 ft 486 kts 307°
2026-05-07 15:05 50.71890 9.67498 36036 ft 485 kts 307°
2026-05-07 15:06 50.76010 9.59080 36047 ft 484 kts 307°
2026-05-07 15:06 50.80123 9.50650 36035 ft 484 kts 307°
2026-05-07 15:07 50.84226 9.42209 36044 ft 484 kts 307°
2026-05-07 15:07 50.88321 9.33761 36051 ft 484 kts 307°
2026-05-07 15:08 50.92385 9.25347 36048 ft 484 kts 307°
2026-05-07 15:08 50.96467 9.16866 36053 ft 484 kts 307°
2026-05-07 15:09 51.00540 9.08381 36050 ft 483 kts 307°
2026-05-07 15:09 51.04602 8.99891 36052 ft 482 kts 307°
2026-05-07 15:10 51.08654 8.91394 36048 ft 482 kts 307°
2026-05-07 15:10 51.12698 8.82898 36042 ft 481 kts 307°
2026-05-07 15:11 51.17190 8.74981 36057 ft 482 kts 314°
2026-05-07 15:11 51.21889 8.67367 36054 ft 481 kts 314°
2026-05-07 15:12 51.26570 8.59734 36062 ft 481 kts 314°
2026-05-07 15:12 51.31225 8.52057 36067 ft 481 kts 313°
2026-05-07 15:13 51.35869 8.44347 36058 ft 481 kts 313°
2026-05-07 15:13 51.40506 8.36621 36067 ft 482 kts 313°
2026-05-07 15:14 51.45144 8.28870 36060 ft 482 kts 313°
2026-05-07 15:14 51.49778 8.21107 36075 ft 482 kts 313°
2026-05-07 15:15 51.54412 8.13327 36074 ft 482 kts 313°
2026-05-07 15:15 51.59040 8.05525 36075 ft 482 kts 313°
2026-05-07 15:16 51.63662 7.97703 36073 ft 483 kts 313°
2026-05-07 15:16 51.68286 7.89858 36072 ft 482 kts 313°
2026-05-07 15:17 51.72895 7.82015 36072 ft 476 kts 313°
2026-05-07 15:17 51.75131 7.78202 36061 ft 460 kts 313°
2026-05-07 15:17 51.77303 7.74491 35757 ft 451 kts 313°
2026-05-07 15:18 51.79445 7.70826 35315 ft 446 kts 313°
2026-05-07 15:18 51.81562 7.67195 34858 ft 442 kts 313°
2026-05-07 15:18 51.83658 7.63597 34397 ft 437 kts 313°
2026-05-07 15:18 51.85730 7.60036 33953 ft 433 kts 313°
2026-05-07 15:19 51.87782 7.56504 33482 ft 428 kts 313°
2026-05-07 15:19 51.89810 7.53012 33024 ft 424 kts 313°
2026-05-07 15:19 51.91818 7.49547 32577 ft 420 kts 313°
2026-05-07 15:19 51.93803 7.46115 32128 ft 416 kts 313°
2026-05-07 15:20 51.95743 7.42760 31687 ft 412 kts 313°
2026-05-07 15:20 51.97691 7.39383 31245 ft 408 kts 313°
2026-05-07 15:20 51.99617 7.36040 30812 ft 404 kts 313°
2026-05-07 15:20 52.01522 7.32728 30358 ft 400 kts 313°
2026-05-07 15:21 52.03411 7.29442 29925 ft 396 kts 313°
2026-05-07 15:21 52.05283 7.26180 29462 ft 393 kts 313°
2026-05-07 15:21 52.07140 7.22940 29006 ft 391 kts 313°
2026-05-07 15:21 52.08981 7.19698 28532 ft 389 kts 310°
2026-05-07 15:22 52.10588 7.16181 27998 ft 388 kts 301°
2026-05-07 15:22 52.11901 7.12347 27384 ft 389 kts 295°
2026-05-07 15:22 52.12989 7.08271 26823 ft 397 kts 292°
2026-05-07 15:22 52.14065 7.04084 26600 ft 404 kts 292°
2026-05-07 15:23 52.15155 6.99833 26355 ft 409 kts 292°
2026-05-07 15:23 52.16250 6.95565 26102 ft 407 kts 292°
2026-05-07 15:23 52.17339 6.91327 25599 ft 405 kts 292°
2026-05-07 15:23 52.18424 6.87118 25069 ft 402 kts 292°
2026-05-07 15:24 52.19501 6.82931 24542 ft 399 kts 292°
2026-05-07 15:24 52.20571 6.78777 24017 ft 396 kts 292°
2026-05-07 15:24 52.21631 6.74652 23497 ft 393 kts 292°
2026-05-07 15:24 52.22684 6.70553 22987 ft 391 kts 292°
2026-05-07 15:25 52.23730 6.66473 22477 ft 388 kts 292°
2026-05-07 15:25 52.24767 6.62426 21982 ft 385 kts 292°
2026-05-07 15:25 52.25795 6.58404 21486 ft 383 kts 292°
2026-05-07 15:25 52.26815 6.54403 20999 ft 380 kts 292°
2026-05-07 15:26 52.27825 6.50436 20515 ft 377 kts 292°
2026-05-07 15:26 52.28827 6.46490 20042 ft 375 kts 292°
2026-05-07 15:26 52.29820 6.42577 19564 ft 372 kts 292°
2026-05-07 15:26 52.30806 6.38690 19097 ft 369 kts 292°
2026-05-07 15:27 52.31782 6.34836 18635 ft 366 kts 292°
2026-05-07 15:27 52.32749 6.31004 18175 ft 364 kts 292°
2026-05-07 15:27 52.33709 6.27191 17727 ft 361 kts 292°
2026-05-07 15:27 52.34660 6.23406 17265 ft 359 kts 292°
2026-05-07 15:28 52.35604 6.19646 16812 ft 356 kts 292°
2026-05-07 15:28 52.36541 6.15910 16367 ft 354 kts 292°
2026-05-07 15:28 52.37471 6.12196 15895 ft 352 kts 292°
2026-05-07 15:28 52.38394 6.08499 15445 ft 350 kts 292°
2026-05-07 15:29 52.39311 6.04824 14990 ft 348 kts 292°
2026-05-07 15:29 52.40222 6.01168 14535 ft 346 kts 292°
2026-05-07 15:29 52.41125 5.97533 14080 ft 344 kts 292°
2026-05-07 15:29 52.42010 5.93963 13631 ft 342 kts 291°
2026-05-07 15:30 52.42901 5.90365 13179 ft 340 kts 291°
2026-05-07 15:30 52.43788 5.86782 12723 ft 338 kts 291°
2026-05-07 15:30 52.44667 5.83225 12277 ft 336 kts 291°
2026-05-07 15:30 52.45539 5.79685 11827 ft 334 kts 291°
2026-05-07 15:31 52.46406 5.76167 11385 ft 332 kts 291°
2026-05-07 15:31 52.47264 5.72678 10946 ft 329 kts 292°
2026-05-07 15:31 52.48117 5.69209 10552 ft 325 kts 292°
2026-05-07 15:31 52.48940 5.65836 10416 ft 313 kts 292°
2026-05-07 15:32 52.49737 5.62575 10274 ft 303 kts 292°
2026-05-07 15:32 52.50506 5.59413 10138 ft 291 kts 290°
2026-05-07 15:32 52.50820 5.56242 10011 ft 279 kts 265°
2026-05-07 15:32 52.50373 5.53185 9922 ft 276 kts 251°
2026-05-07 15:33 52.49727 5.50207 9830 ft 278 kts 250°
2026-05-07 15:33 52.49077 5.47231 9718 ft 276 kts 250°
2026-05-07 15:33 52.48430 5.44276 9597 ft 274 kts 250°
2026-05-07 15:33 52.47788 5.41338 9499 ft 273 kts 250°
2026-05-07 15:34 52.47149 5.38409 9399 ft 272 kts 250°
2026-05-07 15:34 52.46517 5.35495 9282 ft 271 kts 251°
2026-05-07 15:34 52.45878 5.32592 9179 ft 270 kts 251°
2026-05-07 15:34 52.45247 5.29692 9075 ft 270 kts 251°
2026-05-07 15:35 52.44614 5.26782 8976 ft 271 kts 251°
2026-05-07 15:35 52.43979 5.23865 8861 ft 272 kts 251°
2026-05-07 15:35 52.43341 5.20938 8759 ft 273 kts 251°
2026-05-07 15:35 52.42702 5.18012 8649 ft 273 kts 250°
2026-05-07 15:36 52.42063 5.15086 8537 ft 273 kts 250°
2026-05-07 15:36 52.41422 5.12154 8436 ft 273 kts 250°
2026-05-07 15:36 52.40782 5.09234 8328 ft 273 kts 250°
2026-05-07 15:36 52.40141 5.06313 8217 ft 272 kts 250°
2026-05-07 15:37 52.39502 5.03408 8111 ft 271 kts 250°
2026-05-07 15:37 52.38864 5.00507 8006 ft 270 kts 250°
2026-05-07 15:37 52.38227 4.97615 7896 ft 270 kts 250°
2026-05-07 15:37 52.37590 4.94728 7782 ft 269 kts 250°
2026-05-07 15:38 52.36958 4.91854 7681 ft 266 kts 252°
2026-05-07 15:38 52.36541 4.88926 7578 ft 265 kts 261°
2026-05-07 15:38 52.36264 4.85927 7466 ft 267 kts 262°
2026-05-07 15:38 52.36006 4.82918 7352 ft 267 kts 262°
2026-05-07 15:39 52.35751 4.79902 7231 ft 268 kts 262°
2026-05-07 15:39 52.35497 4.76897 7142 ft 265 kts 262°
2026-05-07 15:39 52.35248 4.73929 7095 ft 263 kts 262°
2026-05-07 15:39 52.35004 4.71011 6977 ft 262 kts 262°
2026-05-07 15:40 52.34839 4.69058 6795 ft 262 kts 262°
2026-05-07 15:40 52.34591 4.66109 6458 ft 262 kts 262°
2026-05-07 15:40 52.34343 4.63157 6151 ft 262 kts 262°
2026-05-07 15:40 52.34094 4.60215 5881 ft 260 kts 262°
2026-05-07 15:41 52.33847 4.57287 5606 ft 259 kts 262°
2026-05-07 15:41 52.33490 4.54440 5211 ft 256 kts 247°
2026-05-07 15:41 52.32536 4.52015 4887 ft 251 kts 231°
2026-05-07 15:41 52.31468 4.49790 4664 ft 247 kts 232°
2026-05-07 15:42 52.30420 4.47581 4416 ft 245 kts 232°
2026-05-07 15:42 52.29383 4.45393 4193 ft 242 kts 232°
2026-05-07 15:42 52.28360 4.43233 3985 ft 239 kts 232°
2026-05-07 15:42 52.27212 4.41398 3752 ft 228 kts 208°
2026-05-07 15:43 52.25711 4.40804 3530 ft 221 kts 174°
2026-05-07 15:43 52.24276 4.41495 3356 ft 213 kts 155°
2026-05-07 15:43 52.22955 4.42526 3204 ft 210 kts 153°
2026-05-07 15:43 52.21691 4.43661 3084 ft 205 kts 139°
2026-05-07 15:44 52.20902 4.45549 2930 ft 205 kts 103°
2026-05-07 15:44 52.20746 4.47845 2880 ft 206 kts 92°
2026-05-07 15:44 52.20657 4.50184 2766 ft 204 kts 91°
2026-05-07 15:44 52.20874 4.52346 2684 ft 188 kts 64°
2026-05-07 15:45 52.21463 4.54211 2608 ft 182 kts 61°
2026-05-07 15:45 52.22076 4.55964 2478 ft 175 kts 58°
2026-05-07 15:45 52.22708 4.57630 2294 ft 166 kts 58°
2026-05-07 15:45 52.23293 4.59150 2052 ft 155 kts 58°
2026-05-07 15:46 52.24360 4.61923 1682 ft 135 kts 57°
2026-05-07 15:46 52.24859 4.63214 1503 ft 135 kts 57°
2026-05-07 15:46 52.25358 4.64511 1317 ft 135 kts 57°
2026-05-07 15:47 52.25857 4.65804 1141 ft 135 kts 57°
2026-05-07 15:47 52.26356 4.67097 958 ft 135 kts 57°
2026-05-07 15:47 52.26853 4.68388 777 ft 134 kts 57°
2026-05-07 15:47 52.27347 4.69678 605 ft 134 kts 57°
2026-05-07 15:48 52.27843 4.70964 422 ft 134 kts 57°
2026-05-07 15:48 52.28337 4.72234 240 ft 134 kts 58°
2026-05-07 15:48 52.28826 4.73508 58 ft 134 kts 57°
2026-05-07 15:48 52.29304 4.74750 5 ft 118 kts 58°
2026-05-07 15:49 52.29628 4.75590 3 ft 65 kts 58°
2026-05-07 15:49 52.29811 4.76063 1 ft 44 kts 58°
2026-05-07 15:49 52.29948 4.76419 1 ft 28 kts 55°
2026-05-07 15:49 52.30069 4.76577 3 ft 22 kts 26°
2026-05-07 15:50 52.30192 4.76679 3 ft 17 kts 27°
2026-05-07 15:50 52.30293 4.76773 3 ft 16 kts 44°
2026-05-07 15:50 52.30349 4.76924 3 ft 16 kts 59°
2026-05-07 15:50 52.30406 4.77074 3 ft 16 kts 56°
2026-05-07 15:51 52.30465 4.77222 3 ft 16 kts 57°
2026-05-07 15:51 52.30523 4.77372 3 ft 16 kts 58°
2026-05-07 15:51 52.30582 4.77522 3 ft 16 kts 50°
2026-05-07 15:51 52.30679 4.77589 3 ft 16 kts
2026-05-07 15:52 52.30787 4.77601 3 ft 16 kts
2026-05-07 15:52 52.30896 4.77612 3 ft 16 kts
2026-05-07 15:52 52.31002 4.77598 3 ft 16 kts 324°
2026-05-07 15:52 52.31064 4.77450 3 ft 16 kts 298°
2026-05-07 15:53 52.31073 4.77272 3 ft 16 kts 272°
2026-05-07 15:53 52.31078 4.77093 3 ft 16 kts 273°
2026-05-07 15:53 52.31081 4.76916 3 ft 16 kts 262°
2026-05-07 15:53 52.31016 4.76792 3 ft 13 kts 225°
2026-05-07 15:54 52.31005 4.76665 3 ft 12 kts 303°
2026-05-07 15:54 52.31028 4.76611 3 ft 2 kts 304°
2026-05-07 15:54 52.31029 4.76609 3 ft 0 kts 304°